| time (UTC) | temp F | wind direction | speed MPH | gust MPH | rain 1hr in | rain 24hr in | rain mn in | humidity % | barometer mb |
| 20260905152842 | 72 | 56 | 0.0 | 6.0 | 0.00 | 0.10 | 0.02 | 84 | 1012.0 |
| 20260905152738 | 72 | 43 | 0.0 | 0.0 | 0.00 | 0.11 | 0.02 | 85 | 1012.0 |
| 20260905152632 | 72 | 62 | 0.0 | 0.0 | 0.00 | 0.11 | 0.02 | 84 | 1012.0 |
| 20260905152525 | 72 | 74 | 0.0 | 0.0 | 0.00 | 0.12 | 0.02 | 84 | 1012.0 |
| 20260905152417 | 72 | 43 | 0.0 | 0.0 | 0.00 | 0.12 | 0.02 | 84 | 1012.0 |
| 20260905152311 | 72 | 51 | 0.0 | 0.0 | 0.00 | 0.12 | 0.02 | 84 | 1012.0 |
| 20260905152207 | 72 | 60 | 0.0 | 0.0 | 0.00 | 0.12 | 0.02 | 85 | 1012.0 |
| 20260905152104 | 72 | 69 | 0.0 | 0.0 | 0.00 | 0.13 | 0.02 | 85 | 1012.1 |
| 20260905152001 | 72 | 71 | 0.0 | 0.0 | 0.00 | 0.14 | 0.02 | 84 | 1012.0 |
| 20260905151855 | 72 | 70 | 0.0 | 0.0 | 0.00 | 0.16 | 0.02 | 84 | 1012.0 |
| 20260905151054 | 72 | 92 | 1.0 | 0.0 | 0.00 | 0.21 | 0.02 | 84 | 1012.0 |
| 20260905150948 | 72 | 93 | 1.0 | 0.0 | 0.00 | 0.23 | 0.02 | 84 | 1012.0 |
| 20260905150843 | 72 | 76 | 2.0 | 0.0 | 0.00 | 0.23 | 0.02 | 84 | 1012.0 |
| 20260905150739 | 72 | 78 | 2.0 | 0.0 | 0.00 | 0.24 | 0.02 | 84 | 1011.9 |
| 20260905150632 | 72 | 80 | 2.0 | 7.0 | 0.00 | 0.24 | 0.02 | 84 | 1011.9 |
| 20260905150307 | 72 | 88 | 2.0 | 7.0 | 0.00 | 0.26 | 0.02 | 84 | 1011.9 |
| 20260905145721 | 72 | 88 | 0.0 | 6.0 | 0.00 | 0.26 | 0.02 | 86 | 1011.8 |
| 20260905145614 | 72 | 74 | 0.0 | 6.0 | 0.00 | 0.27 | 0.02 | 85 | 1011.8 |
| 20260905145511 | 72 | 83 | 0.0 | 5.0 | 0.00 | 0.27 | 0.02 | 86 | 1011.8 |
| 20260905145408 | 72 | 85 | 0.0 | 3.0 | 0.00 | 0.27 | 0.02 | 86 | 1011.8 |
| 20260905144827 | 72 | 76 | 0.0 | 6.0 | 0.00 | 0.28 | 0.02 | 86 | 1011.9 |
| 20260905144722 | 72 | 68 | 0.0 | 4.0 | 0.00 | 0.28 | 0.02 | 86 | 1011.8 |
| 20260905144615 | 72 | 88 | 0.0 | 4.0 | 0.00 | 0.28 | 0.02 | 86 | 1011.8 |
| 20260905144512 | 72 | 84 | 0.0 | 3.0 | 0.00 | 0.28 | 0.02 | 86 | 1011.8 |
| 20260905144406 | 72 | 76 | 0.0 | 3.0 | 0.00 | 0.28 | 0.02 | 86 | 1011.8 |
| 20260905144303 | 71 | 51 | 0.0 | 3.0 | 0.00 | 0.28 | 0.02 | 86 | 1011.8 |
| 20260905144158 | 71 | 36 | 0.0 | 0.0 | 0.00 | 0.28 | 0.02 | 87 | 1011.8 |
| 20260905144055 | 71 | 78 | 0.0 | 5.0 | 0.00 | 0.28 | 0.02 | 87 | 1011.7 |
| 20260905143734 | 71 | 57 | 0.0 | 0.0 | 0.00 | 0.28 | 0.02 | 88 | 1011.7 |
| 20260905143627 | 71 | 66 | 0.0 | 0.0 | 0.00 | 0.28 | 0.02 | 88 | 1011.7 |
| 20260905143049 | 71 | 13 | 1.0 | 3.0 | 0.00 | 0.29 | 0.02 | 89 | 1011.7 |
| 20260905142945 | 70 | 59 | 1.0 | 9.0 | 0.00 | 0.30 | 0.02 | 89 | 1011.7 |
| 20260905142840 | 70 | 65 | 1.0 | 9.0 | 0.00 | 0.30 | 0.02 | 88 | 1011.6 |
| 20260905142519 | 70 | 51 | 1.0 | 9.0 | 0.00 | 0.30 | 0.02 | 88 | 1011.6 |
| 20260905142152 | 70 | 74 | 1.0 | 9.0 | 0.00 | 0.31 | 0.02 | 88 | 1011.6 |
| 20260905142046 | 70 | 12 | 1.0 | 9.0 | 0.00 | 0.32 | 0.02 | 89 | 1011.6 |
| 20260905141500 | 70 | 63 | 1.0 | 7.0 | 0.00 | 0.33 | 0.02 | 88 | 1011.6 |
| 20260905141352 | 70 | 63 | 1.0 | 7.0 | 0.00 | 0.33 | 0.02 | 88 | 1011.6 |
| 20260905141250 | 70 | 64 | 1.0 | 7.0 | 0.00 | 0.33 | 0.02 | 88 | 1011.6 |
| 20260905141146 | 70 | 74 | 1.0 | 7.0 | 0.00 | 0.34 | 0.02 | 88 | 1011.6 |
| 20260905141039 | 70 | 63 | 0.0 | 7.0 | 0.00 | 0.34 | 0.02 | 89 | 1011.5 |
| 20260905140934 | 70 | 78 | 0.0 | 7.0 | 0.00 | 0.34 | 0.02 | 89 | 1011.5 |
| 20260905140828 | 70 | 84 | 0.0 | 6.0 | 0.00 | 0.34 | 0.02 | 90 | 1011.5 |
| 20260905140722 | 70 | 82 | 0.0 | 0.0 | 0.00 | 0.34 | 0.02 | 89 | 1011.5 |
| 20260905140620 | 70 | 83 | 0.0 | 0.0 | 0.00 | 0.34 | 0.02 | 89 | 1011.5 |
| 20260905140515 | 70 | 82 | 0.0 | 7.0 | 0.00 | 0.36 | 0.02 | 89 | 1011.5 |
| 20260905140411 | 70 | 82 | 1.0 | 7.0 | 0.00 | 0.36 | 0.02 | 89 | 1011.5 |
| 20260905140044 | 70 | 41 | 0.0 | 4.0 | 0.00 | 0.37 | 0.02 | 90 | 1011.5 |
| 20260905135722 | 70 | 81 | 1.0 | 7.0 | 0.00 | 0.38 | 0.02 | 89 | 1011.5 |
| 20260905135617 | 70 | 52 | 1.0 | 7.0 | 0.00 | 0.38 | 0.02 | 90 | 1011.5 |
| 20260905135511 | 70 | 74 | 1.0 | 7.0 | 0.00 | 0.39 | 0.02 | 90 | 1011.5 |
| 20260905135407 | 70 | 73 | 0.0 | 7.0 | 0.00 | 0.39 | 0.02 | 90 | 1011.6 |
| 20260905135307 | 70 | 82 | 0.0 | 7.0 | 0.00 | 0.40 | 0.02 | 90 | 1011.5 |
| 20260905135203 | 70 | 77 | 0.0 | 7.0 | 0.00 | 0.40 | 0.02 | 90 | 1011.5 |
| 20260905135059 | 70 | 62 | 0.0 | 7.0 | 0.00 | 0.40 | 0.02 | 90 | 1011.5 |
| 20260905134955 | 70 | 54 | 0.0 | 7.0 | 0.00 | 0.40 | 0.02 | 90 | 1011.5 |
| 20260905134848 | 70 | 68 | 0.0 | 6.0 | 0.00 | 0.41 | 0.02 | 91 | 1011.5 |
| 20260905134744 | 70 | 50 | 0.0 | 6.0 | 0.00 | 0.41 | 0.02 | 91 | 1011.5 |
| 20260905134638 | 70 | 64 | 0.0 | 5.0 | 0.00 | 0.42 | 0.02 | 91 | 1011.5 |
| 20260905134312 | 69 | 50 | 0.0 | 5.0 | 0.00 | 0.44 | 0.02 | 91 | 1011.5 |
| 20260905133509 | 69 | 80 | 1.0 | 7.0 | 0.00 | 0.54 | 0.02 | 91 | 1011.6 |
| 20260905133406 | 69 | 84 | 1.0 | 7.0 | 0.00 | 0.56 | 0.02 | 91 | 1011.6 |
| 20260905133302 | 69 | 77 | 1.0 | 7.0 | 0.00 | 0.56 | 0.02 | 91 | 1011.6 |
| 20260905133159 | 69 | 94 | 0.0 | 7.0 | 0.00 | 0.58 | 0.02 | 91 | 1011.6 |
| 20260905133054 | 69 | 85 | 0.0 | 5.0 | 0.00 | 0.58 | 0.02 | 91 | 1011.6 |
| 20260905132947 | 69 | 87 | 0.0 | 5.0 | 0.00 | 0.59 | 0.02 | 92 | 1011.6 |
| 20260905132843 | 69 | 71 | 0.0 | 4.0 | 0.00 | 0.59 | 0.02 | 92 | 1011.7 |
| 20260905132739 | 69 | 64 | 0.0 | 3.0 | 0.00 | 0.60 | 0.02 | 92 | 1011.6 |
| 20260905132636 | 69 | 68 | 0.0 | 3.0 | 0.00 | 0.60 | 0.02 | 92 | 1011.6 |
| 20260905132316 | 69 | 71 | 0.0 | 5.0 | 0.00 | 0.62 | 0.02 | 92 | 1011.5 |
| 20260905132211 | 69 | 65 | 0.0 | 5.0 | 0.00 | 0.62 | 0.02 | 92 | 1011.5 |
| 20260905132107 | 69 | 65 | 0.0 | 5.0 | 0.00 | 0.62 | 0.02 | 92 | 1011.5 |
| 20260905132004 | 69 | 78 | 0.0 | 5.0 | 0.00 | 0.62 | 0.02 | 93 | 1011.6 |
| 20260905131901 | 69 | 71 | 0.0 | 5.0 | 0.00 | 0.62 | 0.02 | 92 | 1011.6 |
| 20260905131756 | 69 | 80 | 0.0 | 5.0 | 0.00 | 0.62 | 0.02 | 93 | 1011.6 |
| 20260905131653 | 69 | 74 | 0.0 | 3.0 | 0.00 | 0.62 | 0.02 | 93 | 1011.5 |
| 20260905131547 | 69 | 82 | 0.0 | 0.0 | 0.00 | 0.62 | 0.02 | 93 | 1011.6 |
| 20260905131442 | 69 | 82 | 0.0 | 1.0 | 0.00 | 0.62 | 0.02 | 93 | 1011.6 |
| 20260905131335 | 69 | 71 | 0.0 | 1.0 | 0.00 | 0.62 | 0.02 | 93 | 1011.6 |
| 20260905131009 | 69 | 58 | 0.0 | 4.0 | 0.00 | 0.62 | 0.02 | 93 | 1011.6 |
| 20260905130902 | 69 | 36 | 0.0 | 3.0 | 0.00 | 0.62 | 0.02 | 93 | 1011.7 |
| 20260905130756 | 69 | 61 | 0.0 | 3.0 | 0.00 | 0.62 | 0.02 | 93 | 1011.7 |
| 20260905130649 | 69 | 66 | 0.0 | 0.0 | 0.00 | 0.62 | 0.02 | 93 | 1011.7 |
| 20260905130545 | 69 | 65 | 0.0 | 0.0 | 0.00 | 0.62 | 0.02 | 93 | 1011.7 |
| 20260905130440 | 69 | 64 | 0.0 | 0.0 | 0.00 | 0.62 | 0.02 | 93 | 1011.6 |
| 20260905130338 | 69 | 64 | 0.0 | 6.0 | 0.00 | 0.62 | 0.02 | 93 | 1011.7 |
| 20260905130011 | 69 | 70 | 1.0 | 6.0 | 0.00 | 0.62 | 0.02 | 93 | 1011.6 |
| 20260905125903 | 69 | 55 | 1.0 | 6.0 | 0.00 | 0.62 | 0.02 | 93 | 1011.7 |
| 20260905125801 | 69 | 57 | 1.0 | 6.0 | 0.00 | 0.62 | 0.02 | 93 | 1011.7 |
| 20260905125653 | 69 | 63 | 1.0 | 6.0 | 0.00 | 0.62 | 0.02 | 93 | 1011.7 |
| 20260905125547 | 69 | 63 | 1.0 | 6.0 | 0.00 | 0.62 | 0.02 | 93 | 1011.7 |
| 20260905125224 | 69 | 71 | 0.0 | 6.0 | 0.00 | 0.62 | 0.02 | 93 | 1011.6 |
| 20260905124856 | 69 | 96 | 0.0 | 6.0 | 0.00 | 0.62 | 0.02 | 94 | 1011.5 |
| 20260905124753 | 69 | 109 | 0.0 | 6.0 | 0.00 | 0.62 | 0.02 | 94 | 1011.5 |
| 20260905124646 | 69 | 89 | 0.0 | 0.0 | 0.00 | 0.62 | 0.02 | 94 | 1011.5 |
| 20260905124540 | 69 | 65 | 0.0 | 0.0 | 0.00 | 0.62 | 0.02 | 94 | 1011.5 |
| 20260905124216 | 69 | 50 | 0.0 | 6.0 | 0.00 | 0.62 | 0.02 | 94 | 1011.5 |
| 20260905124110 | 69 | 77 | 0.0 | 6.0 | 0.00 | 0.62 | 0.02 | 94 | 1011.5 |
| 20260905124007 | 69 | 51 | 0.0 | 6.0 | 0.00 | 0.62 | 0.02 | 94 | 1011.4 |
| 20260905123900 | 69 | 69 | 0.0 | 0.0 | 0.00 | 0.62 | 0.02 | 94 | 1011.5 |
| 20260905123755 | 69 | 68 | 0.0 | 1.0 | 0.00 | 0.62 | 0.02 | 94 | 1011.5 |
| 20260905123652 | 69 | 69 | 0.0 | 0.0 | 0.00 | 0.62 | 0.02 | 94 | 1011.5 |
| 20260905123330 | 69 | 61 | 0.0 | 7.0 | 0.00 | 0.62 | 0.02 | 94 | 1011.5 |
| 20260905123224 | 69 | 76 | 0.0 | 7.0 | 0.00 | 0.62 | 0.02 | 94 | 1011.5 |
| 20260905123122 | 69 | 67 | 0.0 | 7.0 | 0.00 | 0.62 | 0.02 | 94 | 1011.4 |
| 20260905122755 | 69 | 39 | 1.0 | 7.0 | 0.00 | 0.62 | 0.02 | 94 | 1011.4 |
| 20260905122653 | 69 | 65 | 1.0 | 7.0 | 0.00 | 0.62 | 0.02 | 94 | 1011.5 |
| 20260905122327 | 69 | 78 | 2.0 | 6.0 | 0.00 | 0.62 | 0.02 | 94 | 1011.4 |
| 20260905122225 | 69 | 90 | 1.0 | 6.0 | 0.00 | 0.62 | 0.02 | 94 | 1011.4 |
| 20260905122119 | 69 | 68 | 1.0 | 6.0 | 0.00 | 0.62 | 0.02 | 94 | 1011.4 |
| 20260905122012 | 69 | 72 | 1.0 | 6.0 | 0.00 | 0.62 | 0.02 | 94 | 1011.4 |
| 20260905121908 | 69 | 82 | 1.0 | 6.0 | 0.00 | 0.62 | 0.02 | 94 | 1011.4 |
| 20260905121806 | 69 | 72 | 1.0 | 6.0 | 0.00 | 0.62 | 0.02 | 94 | 1011.4 |
| 20260905121659 | 69 | 55 | 0.0 | 6.0 | 0.00 | 0.62 | 0.02 | 94 | 1011.4 |
| 20260905121555 | 69 | 22 | 0.0 | 6.0 | 0.00 | 0.62 | 0.02 | 94 | 1011.4 |
| 20260905121447 | 69 | 89 | 0.0 | 6.0 | 0.00 | 0.62 | 0.02 | 94 | 1011.4 |
| 20260905121344 | 69 | 92 | 0.0 | 2.0 | 0.00 | 0.62 | 0.02 | 94 | 1011.5 |
| 20260905121240 | 69 | 94 | 0.0 | 0.0 | 0.00 | 0.62 | 0.02 | 94 | 1011.4 |
| 20260905121134 | 69 | 95 | 0.0 | 0.0 | 0.00 | 0.62 | 0.02 | 94 | 1011.4 |
| 20260905121032 | 69 | 97 | 0.0 | 4.0 | 0.00 | 0.62 | 0.02 | 94 | 1011.4 |
| 20260905120925 | 69 | 98 | 0.0 | 4.0 | 0.00 | 0.62 | 0.02 | 94 | 1011.4 |
| 20260905120820 | 69 | 80 | 0.0 | 2.0 | 0.00 | 0.62 | 0.02 | 94 | 1011.3 |
| 20260905120714 | 69 | 81 | 0.0 | 2.0 | 0.00 | 0.62 | 0.02 | 94 | 1011.3 |
| 20260905120610 | 69 | 84 | 0.0 | 2.0 | 0.00 | 0.62 | 0.02 | 94 | 1011.3 |
| 20260905120504 | 69 | 86 | 0.0 | 2.0 | 0.00 | 0.62 | 0.02 | 94 | 1011.3 |
| 20260905120144 | 69 | 75 | 1.0 | 7.0 | 0.00 | 0.62 | 0.02 | 94 | 1011.3 |
| 20260905120041 | 69 | 74 | 0.0 | 7.0 | 0.00 | 0.62 | 0.02 | 94 | 1011.2 |
| 20260905115935 | 69 | 56 | 0.0 | 7.0 | 0.00 | 0.62 | 0.02 | 94 | 1011.2 |
| 20260905115832 | 69 | 70 | 0.0 | 7.0 | 0.00 | 0.62 | 0.02 | 94 | 1011.2 |
| 20260905115512 | 69 | 83 | 0.0 | 7.0 | 0.00 | 0.62 | 0.02 | 94 | 1011.2 |
| 20260905115409 | 69 | 65 | 0.0 | 7.0 | 0.00 | 0.62 | 0.02 | 94 | 1011.2 |
| 20260905115306 | 69 | 73 | 0.0 | 0.0 | 0.00 | 0.62 | 0.02 | 94 | 1011.2 |
| 20260905115204 | 69 | 84 | 0.0 | 0.0 | 0.00 | 0.62 | 0.02 | 94 | 1011.2 |
| 20260905115102 | 69 | 83 | 0.0 | 0.0 | 0.00 | 0.62 | 0.02 | 94 | 1011.1 |
| 20260905114956 | 69 | 91 | 0.0 | 0.0 | 0.00 | 0.62 | 0.02 | 94 | 1011.1 |
| 20260905114853 | 70 | 94 | 0.0 | 0.0 | 0.00 | 0.62 | 0.02 | 94 | 1011.2 |
| 20260905114748 | 70 | 94 | 0.0 | 6.0 | 0.00 | 0.62 | 0.02 | 94 | 1011.1 |
| 20260905114422 | 70 | 79 | 0.0 | 0.0 | 0.00 | 0.62 | 0.02 | 94 | 1011.1 |
| 20260905114319 | 70 | 69 | 0.0 | 2.0 | 0.00 | 0.62 | 0.02 | 94 | 1011.1 |
| 20260905114212 | 70 | 69 | 0.0 | 2.0 | 0.00 | 0.62 | 0.02 | 94 | 1011.2 |
| 20260905114106 | 70 | 85 | 0.0 | 0.0 | 0.00 | 0.62 | 0.02 | 94 | 1011.2 |
| 20260905113959 | 70 | 86 | 0.0 | 0.0 | 0.00 | 0.62 | 0.02 | 94 | 1011.2 |
| 20260905113852 | 70 | 80 | 0.0 | 0.0 | 0.00 | 0.62 | 0.02 | 94 | 1011.2 |
| 20260905113528 | 70 | 67 | 0.0 | 5.0 | 0.00 | 0.63 | 0.02 | 94 | 1011.2 |
| 20260905113423 | 70 | 84 | 0.0 | 5.0 | 0.00 | 0.63 | 0.02 | 94 | 1011.2 |
| 20260905113315 | 70 | 76 | 0.0 | 3.0 | 0.00 | 0.63 | 0.02 | 94 | 1011.2 |
| 20260905113213 | 70 | 47 | 0.0 | 3.0 | 0.00 | 0.63 | 0.02 | 94 | 1011.2 |
| 20260905112851 | 70 | 73 | 0.0 | 5.0 | 0.00 | 0.64 | 0.02 | 94 | 1011.2 |
| 20260905112306 | 70 | 86 | 0.0 | 0.0 | 0.00 | 0.64 | 0.02 | 94 | 1011.1 |
| 20260905112201 | 70 | 90 | 0.0 | 3.0 | 0.00 | 0.64 | 0.02 | 94 | 1011.1 |
| 20260905112059 | 70 | 75 | 0.0 | 3.0 | 0.00 | 0.64 | 0.02 | 94 | 1011.1 |
| 20260905111956 | 70 | 76 | 0.0 | 3.0 | 0.00 | 0.64 | 0.02 | 94 | 1011.0 |
| 20260905111849 | 70 | 53 | 0.0 | 0.0 | 0.00 | 0.64 | 0.02 | 94 | 1011.0 |
| 20260905111746 | 70 | 76 | 0.0 | 0.0 | 0.00 | 0.64 | 0.02 | 94 | 1010.9 |
| 20260905111419 | 70 | 73 | 0.0 | 5.0 | 0.00 | 0.64 | 0.02 | 94 | 1010.8 |
| 20260905111312 | 70 | 73 | 1.0 | 5.0 | 0.00 | 0.65 | 0.02 | 94 | 1010.8 |
| 20260905111210 | 70 | 73 | 1.0 | 5.0 | 0.00 | 0.65 | 0.02 | 94 | 1010.7 |
| 20260905111106 | 70 | 76 | 0.0 | 5.0 | 0.00 | 0.66 | 0.02 | 94 | 1010.7 |
| 20260905110518 | 70 | 63 | 0.0 | 3.0 | 0.00 | 0.72 | 0.02 | 94 | 1010.7 |
| 20260905110416 | 70 | 65 | 0.0 | 2.0 | 0.00 | 0.74 | 0.02 | 94 | 1010.6 |
| 20260905110049 | 70 | 76 | 0.0 | 1.0 | 0.00 | 0.78 | 0.02 | 94 | 1010.6 |
| 20260905105945 | 70 | 101 | 0.0 | 0.0 | 0.00 | 0.79 | 0.02 | 94 | 1010.6 |
| 20260905105838 | 70 | 101 | 0.0 | 0.0 | 0.00 | 0.80 | 0.02 | 94 | 1010.6 |
| 20260905105510 | 70 | 102 | 0.0 | 5.0 | 0.00 | 0.86 | 0.02 | 94 | 1010.6 |
| 20260905105403 | 70 | 103 | 0.0 | 5.0 | 0.00 | 0.87 | 0.02 | 94 | 1010.6 |
| 20260905105301 | 70 | 86 | 0.0 | 5.0 | 0.00 | 0.88 | 0.02 | 94 | 1010.6 |
| 20260905105156 | 70 | 85 | 0.0 | 5.0 | 0.00 | 0.90 | 0.02 | 94 | 1010.6 |
| 20260905105051 | 70 | 89 | 0.0 | 5.0 | 0.00 | 0.92 | 0.02 | 94 | 1010.6 |
| 20260905104947 | 70 | 114 | 0.0 | 5.0 | 0.00 | 0.96 | 0.02 | 94 | 1010.6 |
| 20260905104845 | 70 | 67 | 0.0 | 5.0 | 0.00 | 0.99 | 0.02 | 94 | 1010.6 |
| 20260905104737 | 70 | 75 | 0.0 | 4.0 | 0.00 | 1.02 | 0.02 | 94 | 1010.6 |
| 20260905104632 | 70 | 97 | 0.0 | 4.0 | 0.00 | 1.04 | 0.02 | 94 | 1010.6 |
| 20260905104525 | 70 | 91 | 0.0 | 1.0 | 0.00 | 1.06 | 0.02 | 94 | 1010.6 |
| 20260905104423 | 70 | 92 | 0.0 | 1.0 | 0.00 | 1.08 | 0.02 | 94 | 1010.5 |
| 20260905104318 | 70 | 99 | 0.0 | 5.0 | 0.00 | 1.09 | 0.02 | 94 | 1010.5 |
| 20260905104212 | 70 | 115 | 0.0 | 0.0 | 0.00 | 1.10 | 0.02 | 94 | 1010.6 |
| 20260905104110 | 70 | 115 | 0.0 | 0.0 | 0.00 | 1.10 | 0.02 | 94 | 1010.6 |
| 20260905104006 | 70 | 91 | 0.0 | 0.0 | 0.00 | 1.10 | 0.02 | 94 | 1010.5 |
| 20260905103900 | 70 | 91 | 0.0 | 0.0 | 0.00 | 1.10 | 0.02 | 94 | 1010.5 |
| 20260905103755 | 70 | 91 | 0.0 | 5.0 | 0.00 | 1.10 | 0.02 | 94 | 1010.5 |
| 20260905103649 | 70 | 91 | 0.0 | 5.0 | 0.00 | 1.10 | 0.02 | 94 | 1010.5 |
| 20260905103547 | 70 | 90 | 0.0 | 5.0 | 0.00 | 1.10 | 0.02 | 94 | 1010.5 |
| 20260905103443 | 70 | 86 | 0.0 | 5.0 | 0.00 | 1.10 | 0.02 | 94 | 1010.5 |
| 20260905103337 | 70 | 88 | 0.0 | 5.0 | 0.00 | 1.10 | 0.02 | 94 | 1010.5 |
| 20260905103230 | 70 | 65 | 0.0 | 3.0 | 0.00 | 1.10 | 0.02 | 94 | 1010.5 |
| 20260905103125 | 70 | 65 | 0.0 | 3.0 | 0.00 | 1.10 | 0.02 | 94 | 1010.5 |
| 20260905102803 | 70 | 73 | 0.0 | 5.0 | 0.00 | 1.10 | 0.02 | 94 | 1010.6 |
| 20260905102657 | 70 | 73 | 0.0 | 5.0 | 0.00 | 1.10 | 0.02 | 94 | 1010.6 |
| 20260905102333 | 70 | 41 | 0.0 | 5.0 | 0.00 | 1.10 | 0.02 | 94 | 1010.5 |
| 20260905102231 | 70 | 66 | 0.0 | 2.0 | 0.00 | 1.10 | 0.02 | 94 | 1010.5 |
| 20260905101910 | 71 | 81 | 0.0 | 5.0 | 0.00 | 1.10 | 0.02 | 94 | 1010.5 |
| 20260905101806 | 71 | 81 | 0.0 | 5.0 | 0.00 | 1.10 | 0.02 | 94 | 1010.5 |
| 20260905101703 | 71 | 82 | 0.0 | 5.0 | 0.00 | 1.10 | 0.02 | 94 | 1010.6 |
| 20260905101555 | 71 | 84 | 0.0 | 4.0 | 0.00 | 1.10 | 0.02 | 94 | 1010.6 |
| 20260905101449 | 71 | 76 | 0.0 | 4.0 | 0.00 | 1.10 | 0.02 | 94 | 1010.6 |
| 20260905101126 | 71 | 85 | 0.0 | 3.0 | 0.00 | 1.10 | 0.02 | 94 | 1010.7 |
| 20260905101023 | 71 | 84 | 0.0 | 3.0 | 0.00 | 1.10 | 0.02 | 94 | 1010.6 |
| 20260905100918 | 71 | 100 | 0.0 | 3.0 | 0.00 | 1.10 | 0.02 | 94 | 1010.6 |
| 20260905100813 | 71 | 105 | 0.0 | 3.0 | 0.00 | 1.10 | 0.02 | 94 | 1010.6 |
| 20260905100705 | 71 | 64 | 0.0 | 3.0 | 0.00 | 1.10 | 0.02 | 94 | 1010.7 |
| 20260905100603 | 71 | 86 | 0.0 | 1.0 | 0.00 | 1.10 | 0.02 | 94 | 1010.7 |
| 20260905100457 | 71 | 77 | 0.0 | 0.0 | 0.00 | 1.10 | 0.02 | 94 | 1010.7 |
| 20260905100353 | 71 | 63 | 0.0 | 2.0 | 0.00 | 1.10 | 0.02 | 94 | 1010.7 |
| 20260905100247 | 71 | 63 | 0.0 | 2.0 | 0.00 | 1.10 | 0.02 | 94 | 1010.7 |
| 20260905095705 | 71 | 88 | 0.0 | 3.0 | 0.00 | 1.10 | 0.02 | 94 | 1010.7 |
| 20260905095602 | 71 | 108 | 0.0 | 3.0 | 0.00 | 1.10 | 0.02 | 94 | 1010.7 |
| 20260905095456 | 71 | 61 | 0.0 | 3.0 | 0.00 | 1.10 | 0.02 | 94 | 1010.7 |
| 20260905095350 | 71 | 75 | 0.0 | 0.0 | 0.00 | 1.10 | 0.02 | 94 | 1010.6 |
| 20260905095247 | 71 | 76 | 0.0 | 0.0 | 0.00 | 1.10 | 0.02 | 94 | 1010.6 |
| 20260905095143 | 71 | 76 | 0.0 | 4.0 | 0.00 | 1.10 | 0.02 | 94 | 1010.6 |
| 20260905095037 | 71 | 80 | 0.0 | 4.0 | 0.00 | 1.10 | 0.02 | 94 | 1010.5 |
| 20260905094708 | 71 | 67 | 0.0 | 0.0 | 0.00 | 1.10 | 0.02 | 94 | 1010.4 |
| 20260905094604 | 71 | 67 | 0.0 | 3.0 | 0.00 | 1.10 | 0.02 | 94 | 1010.4 |
| 20260905094457 | 71 | 67 | 0.0 | 3.0 | 0.00 | 1.10 | 0.02 | 94 | 1010.4 |
| 20260905094351 | 71 | 65 | 0.0 | 3.0 | 0.00 | 1.10 | 0.02 | 94 | 1010.4 |
| 20260905094026 | 71 | 51 | 0.0 | 3.0 | 0.00 | 1.10 | 0.02 | 94 | 1010.5 |
| 20260905093923 | 71 | 76 | 0.0 | 0.0 | 0.00 | 1.10 | 0.02 | 94 | 1010.5 |
| 20260905093557 | 71 | 82 | 0.0 | 0.0 | 0.00 | 1.10 | 0.02 | 94 | 1010.6 |
| 20260905093452 | 71 | 82 | 0.0 | 0.0 | 0.00 | 1.10 | 0.02 | 94 | 1010.6 |
| 20260905093344 | 71 | 82 | 0.0 | 0.0 | 0.00 | 1.10 | 0.02 | 94 | 1010.6 |
| 20260905093239 | 71 | 82 | 0.0 | 0.0 | 0.00 | 1.10 | 0.02 | 94 | 1010.7 |
| 20260905092915 | 71 | 82 | 0.0 | 0.0 | 0.00 | 1.10 | 0.02 | 94 | 1010.5 |
| 20260905092808 | 71 | 82 | 0.0 | 0.0 | 0.00 | 1.10 | 0.02 | 94 | 1010.6 |
| 20260905092704 | 71 | 82 | 0.0 | 0.0 | 0.00 | 1.10 | 0.02 | 94 | 1010.5 |
| 20260905092121 | 71 | 82 | 0.0 | 0.0 | 0.00 | 1.10 | 0.02 | 94 | 1010.4 |
| 20260905092018 | 71 | 82 | 0.0 | 0.0 | 0.00 | 1.10 | 0.02 | 95 | 1010.4 |
| 20260905091912 | 71 | 82 | 0.0 | 0.0 | 0.00 | 1.10 | 0.02 | 95 | 1010.5 |
| 20260905091806 | 71 | 82 | 0.0 | 0.0 | 0.00 | 1.10 | 0.02 | 95 | 1010.5 |
| 20260905091700 | 71 | 82 | 0.0 | 0.0 | 0.00 | 1.10 | 0.02 | 95 | 1010.5 |
| 20260905091556 | 71 | 83 | 0.0 | 0.0 | 0.00 | 1.10 | 0.02 | 95 | 1010.5 |
| 20260905091452 | 71 | 110 | 0.0 | 0.0 | 0.00 | 1.10 | 0.02 | 94 | 1010.6 |
| 20260905091349 | 71 | 110 | 0.0 | 0.0 | 0.00 | 1.10 | 0.02 | 94 | 1010.6 |
| 20260905091247 | 71 | 111 | 0.0 | 0.0 | 0.00 | 1.10 | 0.02 | 94 | 1010.6 |
| 20260905091141 | 71 | 111 | 0.0 | 0.0 | 0.00 | 1.10 | 0.02 | 94 | 1010.6 |
| 20260905090333 | 70 | 231 | 0.0 | 0.0 | 0.00 | 1.10 | 0.02 | 94 | 1010.5 |
| 20260905090013 | 70 | 232 | 0.0 | 0.0 | 0.00 | 1.10 | 0.02 | 94 | 1010.6 |
| 20260905085910 | 70 | 232 | 0.0 | 0.0 | 0.00 | 1.10 | 0.02 | 94 | 1010.6 |
| 20260905085804 | 70 | 232 | 0.0 | 0.0 | 0.00 | 1.10 | 0.02 | 94 | 1010.6 |
| 20260905085700 | 70 | 232 | 0.0 | 0.0 | 0.00 | 1.10 | 0.02 | 94 | 1010.5 |
| 20260905085556 | 70 | 232 | 0.0 | 0.0 | 0.00 | 1.10 | 0.02 | 94 | 1010.5 |
| 20260905085448 | 70 | 232 | 0.0 | 0.0 | 0.00 | 1.10 | 0.02 | 94 | 1010.4 |
| 20260905085345 | 70 | 232 | 0.0 | 0.0 | 0.00 | 1.10 | 0.02 | 94 | 1010.4 |
| 20260905085238 | 70 | 232 | 0.0 | 0.0 | 0.00 | 1.10 | 0.02 | 94 | 1010.4 |
| 20260905085131 | 70 | 232 | 0.0 | 0.0 | 0.00 | 1.10 | 0.02 | 94 | 1010.5 |
| 20260905085026 | 70 | 232 | 0.0 | 0.0 | 0.00 | 1.10 | 0.02 | 94 | 1010.5 |
| 20260905084919 | 70 | 232 | 0.0 | 0.0 | 0.00 | 1.10 | 0.02 | 94 | 1010.5 |
| 20260905084814 | 70 | 232 | 0.0 | 0.0 | 0.00 | 1.10 | 0.02 | 94 | 1010.6 |
| 20260905084710 | 70 | 232 | 0.0 | 0.0 | 0.00 | 1.10 | 0.02 | 94 | 1010.5 |
| 20260905084605 | 70 | 232 | 0.0 | 0.0 | 0.00 | 1.10 | 0.02 | 94 | 1010.5 |
| 20260905084243 | 70 | 232 | 0.0 | 0.0 | 0.00 | 1.10 | 0.02 | 94 | 1010.5 |
| 20260905084138 | 70 | 232 | 0.0 | 0.0 | 0.00 | 1.10 | 0.02 | 94 | 1010.5 |
| 20260905084030 | 70 | 232 | 0.0 | 0.0 | 0.00 | 1.10 | 0.02 | 94 | 1010.5 |
| 20260905083707 | 70 | 232 | 0.0 | 0.0 | 0.00 | 1.10 | 0.02 | 94 | 1010.6 |
| 20260905083600 | 70 | 232 | 0.0 | 0.0 | 0.00 | 1.10 | 0.02 | 94 | 1010.7 |
| 20260905083457 | 70 | 232 | 0.0 | 0.0 | 0.00 | 1.10 | 0.02 | 94 | 1010.7 |
| 20260905083352 | 70 | 232 | 0.0 | 0.0 | 0.00 | 1.10 | 0.02 | 94 | 1010.7 |
| 20260905083248 | 70 | 232 | 0.0 | 0.0 | 0.00 | 1.10 | 0.02 | 94 | 1010.7 |
| 20260905083141 | 70 | 232 | 0.0 | 0.0 | 0.00 | 1.10 | 0.02 | 94 | 1010.6 |
| 20260905083035 | 70 | 232 | 0.0 | 0.0 | 0.00 | 1.10 | 0.02 | 94 | 1010.6 |
| 20260905082932 | 70 | 232 | 0.0 | 0.0 | 0.00 | 1.10 | 0.02 | 94 | 1010.6 |
| 20260905082830 | 70 | 232 | 0.0 | 0.0 | 0.00 | 1.10 | 0.02 | 94 | 1010.5 |
| 20260905082725 | 70 | 232 | 0.0 | 0.0 | 0.00 | 1.10 | 0.02 | 94 | 1010.5 |
| 20260905082358 | 70 | 232 | 0.0 | 0.0 | 0.00 | 1.10 | 0.02 | 94 | 1010.6 |
| 20260905082031 | 70 | 232 | 0.0 | 0.0 | 0.00 | 1.10 | 0.02 | 94 | 1010.6 |
| 20260905081927 | 70 | 232 | 0.0 | 0.0 | 0.00 | 1.10 | 0.02 | 94 | 1010.7 |
| 20260905081822 | 70 | 232 | 0.0 | 0.0 | 0.00 | 1.10 | 0.02 | 94 | 1010.7 |
| 20260905081717 | 70 | 232 | 0.0 | 0.0 | 0.00 | 1.10 | 0.02 | 94 | 1010.6 |
| 20260905081611 | 70 | 232 | 0.0 | 0.0 | 0.00 | 1.10 | 0.02 | 94 | 1010.6 |
| 20260905081504 | 70 | 232 | 0.0 | 0.0 | 0.00 | 1.10 | 0.02 | 94 | 1010.5 |
| 20260905081400 | 70 | 232 | 0.0 | 0.0 | 0.00 | 1.10 | 0.02 | 94 | 1010.5 |
| 20260905081255 | 70 | 232 | 0.0 | 0.0 | 0.00 | 1.10 | 0.02 | 94 | 1010.5 |
| 20260905081149 | 70 | 232 | 0.0 | 0.0 | 0.00 | 1.10 | 0.02 | 94 | 1010.5 |
| 20260905081043 | 70 | 232 | 0.0 | 0.0 | 0.00 | 1.10 | 0.02 | 94 | 1010.4 |
| 20260905080719 | 70 | 232 | 0.0 | 0.0 | 0.00 | 1.10 | 0.02 | 94 | 1010.3 |
| 20260905080612 | 70 | 232 | 0.0 | 0.0 | 0.00 | 1.10 | 0.02 | 94 | 1010.3 |
| 20260905080507 | 70 | 232 | 0.0 | 0.0 | 0.00 | 1.10 | 0.02 | 94 | 1010.3 |
| 20260905080404 | 70 | 232 | 0.0 | 0.0 | 0.00 | 1.10 | 0.02 | 94 | 1010.3 |
| 20260905080259 | 70 | 232 | 0.0 | 0.0 | 0.00 | 1.10 | 0.02 | 94 | 1010.4 |
| 20260905080153 | 70 | 232 | 0.0 | 0.0 | 0.00 | 1.10 | 0.02 | 94 | 1010.4 |
| 20260905080048 | 70 | 232 | 0.0 | 0.0 | 0.00 | 1.10 | 0.02 | 94 | 1010.4 |
| 20260905075946 | 70 | 232 | 0.0 | 0.0 | 0.00 | 1.10 | 0.02 | 94 | 1010.4 |
| 20260905075842 | 70 | 232 | 0.0 | 0.0 | 0.00 | 1.10 | 0.02 | 94 | 1010.4 |
| 20260905075738 | 70 | 232 | 0.0 | 0.0 | 0.00 | 1.10 | 0.02 | 94 | 1010.4 |
| 20260905075632 | 70 | 232 | 0.0 | 0.0 | 0.00 | 1.10 | 0.02 | 94 | 1010.4 |
| 20260905075306 | 70 | 232 | 0.0 | 0.0 | 0.00 | 1.10 | 0.02 | 94 | 1010.5 |
| 20260905075159 | 70 | 232 | 0.0 | 0.0 | 0.00 | 1.10 | 0.02 | 93 | 1010.5 |
| 20260905075056 | 70 | 232 | 0.0 | 0.0 | 0.00 | 1.10 | 0.02 | 93 | 1010.5 |
| 20260905074950 | 70 | 232 | 0.0 | 0.0 | 0.00 | 1.10 | 0.02 | 93 | 1010.6 |
| 20260905074622 | 70 | 232 | 0.0 | 0.0 | 0.00 | 1.10 | 0.02 | 94 | 1010.7 |
| 20260905074519 | 70 | 232 | 0.0 | 0.0 | 0.00 | 1.10 | 0.02 | 94 | 1010.7 |
| 20260905074153 | 70 | 232 | 0.0 | 0.0 | 0.00 | 1.10 | 0.02 | 93 | 1010.7 |
| 20260905074046 | 70 | 232 | 0.0 | 0.0 | 0.00 | 1.10 | 0.02 | 94 | 1010.7 |
| 20260905073939 | 70 | 232 | 0.0 | 0.0 | 0.00 | 1.10 | 0.02 | 94 | 1010.8 |
| 20260905073836 | 70 | 232 | 0.0 | 0.0 | 0.00 | 1.10 | 0.02 | 94 | 1010.8 |
| 20260905073731 | 70 | 232 | 0.0 | 0.0 | 0.00 | 1.10 | 0.02 | 94 | 1010.8 |
| 20260905073624 | 70 | 232 | 0.0 | 0.0 | 0.00 | 1.10 | 0.02 | 94 | 1010.7 |
| 20260905073519 | 70 | 232 | 0.0 | 0.0 | 0.00 | 1.10 | 0.02 | 94 | 1010.7 |
| 20260905073154 | 70 | 232 | 0.0 | 0.0 | 0.00 | 1.10 | 0.02 | 94 | 1010.8 |
| 20260905073052 | 70 | 232 | 0.0 | 0.0 | 0.00 | 1.10 | 0.02 | 94 | 1010.8 |
| 20260905072949 | 70 | 232 | 0.0 | 0.0 | 0.00 | 1.10 | 0.02 | 94 | 1010.7 |
| 20260905072842 | 70 | 232 | 0.0 | 0.0 | 0.00 | 1.10 | 0.02 | 94 | 1010.7 |
| 20260905072739 | 70 | 232 | 0.0 | 0.0 | 0.00 | 1.10 | 0.02 | 94 | 1010.6 |
| 20260905072631 | 70 | 232 | 0.0 | 0.0 | 0.00 | 1.10 | 0.02 | 94 | 1010.4 |
| 20260905072307 | 70 | 232 | 0.0 | 0.0 | 0.00 | 1.10 | 0.02 | 94 | 1010.3 |
| 20260905072202 | 70 | 232 | 0.0 | 0.0 | 0.00 | 1.10 | 0.02 | 94 | 1010.2 |
| 20260905072057 | 70 | 232 | 0.0 | 0.0 | 0.00 | 1.10 | 0.02 | 94 | 1010.3 |
| 20260905071951 | 70 | 232 | 0.0 | 0.0 | 0.00 | 1.10 | 0.02 | 94 | 1010.3 |
| 20260905071845 | 70 | 232 | 0.0 | 0.0 | 0.00 | 1.10 | 0.02 | 94 | 1010.3 |
| 20260905071516 | 70 | 232 | 0.0 | 0.0 | 0.00 | 1.10 | 0.02 | 94 | 1010.3 |
| 20260905071411 | 70 | 232 | 0.0 | 0.0 | 0.00 | 1.10 | 0.02 | 94 | 1010.3 |
| 20260905071309 | 70 | 232 | 0.0 | 0.0 | 0.00 | 1.10 | 0.02 | 93 | 1010.4 |
| 20260905071206 | 70 | 232 | 0.0 | 0.0 | 0.00 | 1.10 | 0.02 | 93 | 1010.4 |
| 20260905070840 | 70 | 232 | 0.0 | 0.0 | 0.00 | 1.10 | 0.02 | 94 | 1010.6 |
| 20260905070733 | 70 | 232 | 0.0 | 0.0 | 0.00 | 1.10 | 0.02 | 94 | 1010.6 |
| 20260905070630 | 70 | 232 | 0.0 | 0.0 | 0.00 | 1.10 | 0.02 | 94 | 1010.6 |
| 20260905070527 | 70 | 232 | 0.0 | 0.0 | 0.00 | 1.10 | 0.02 | 93 | 1010.6 |
| 20260905070200 | 70 | 232 | 0.0 | 0.0 | 0.00 | 1.10 | 0.02 | 94 | 1010.6 |
| 20260905070057 | 70 | 232 | 0.0 | 0.0 | 0.00 | 1.10 | 0.02 | 93 | 1010.6 |
| 20260905065952 | 70 | 232 | 0.0 | 0.0 | 0.00 | 1.10 | 0.02 | 93 | 1010.6 |
| 20260905065850 | 70 | 232 | 0.0 | 0.0 | 0.00 | 1.10 | 0.02 | 93 | 1010.6 |
| 20260905065521 | 70 | 232 | 0.0 | 0.0 | 0.00 | 1.10 | 0.02 | 93 | 1010.6 |
| 20260905065414 | 70 | 232 | 0.0 | 0.0 | 0.00 | 1.10 | 0.02 | 93 | 1010.6 |
| 20260905065310 | 70 | 232 | 0.0 | 0.0 | 0.00 | 1.10 | 0.02 | 93 | 1010.6 |
| 20260905065204 | 70 | 232 | 0.0 | 0.0 | 0.00 | 1.10 | 0.02 | 94 | 1010.6 |
| 20260905065056 | 70 | 232 | 0.0 | 0.0 | 0.00 | 1.10 | 0.02 | 93 | 1010.6 |
| 20260905064952 | 70 | 232 | 0.0 | 0.0 | 0.00 | 1.10 | 0.02 | 93 | 1010.5 |
| 20260905064849 | 70 | 232 | 0.0 | 0.0 | 0.00 | 1.10 | 0.02 | 93 | 1010.5 |
| 20260905064744 | 70 | 232 | 0.0 | 0.0 | 0.00 | 1.10 | 0.02 | 93 | 1010.4 |
| 20260905064639 | 70 | 232 | 0.0 | 0.0 | 0.00 | 1.10 | 0.02 | 93 | 1010.3 |
| 20260905064535 | 70 | 232 | 0.0 | 0.0 | 0.00 | 1.10 | 0.02 | 93 | 1010.2 |
| 20260905064430 | 70 | 232 | 0.0 | 0.0 | 0.00 | 1.10 | 0.02 | 93 | 1010.3 |
| 20260905064325 | 70 | 232 | 0.0 | 0.0 | 0.00 | 1.10 | 0.02 | 93 | 1010.4 |
| 20260905064218 | 70 | 232 | 0.0 | 0.0 | 0.00 | 1.10 | 0.02 | 93 | 1010.4 |
| 20260905064113 | 70 | 232 | 0.0 | 0.0 | 0.00 | 1.10 | 0.02 | 93 | 1010.5 |
| 20260905063750 | 70 | 232 | 0.0 | 0.0 | 0.00 | 1.10 | 0.02 | 93 | 1010.6 |
| 20260905063644 | 70 | 232 | 0.0 | 0.0 | 0.00 | 1.10 | 0.02 | 93 | 1010.6 |
| 20260905063540 | 70 | 232 | 0.0 | 0.0 | 0.00 | 1.10 | 0.02 | 93 | 1010.7 |
| 20260905063436 | 70 | 232 | 0.0 | 0.0 | 0.00 | 1.10 | 0.02 | 93 | 1010.7 |
| 20260905063333 | 70 | 232 | 0.0 | 0.0 | 0.00 | 1.10 | 0.02 | 93 | 1010.7 |
| 20260905063226 | 70 | 232 | 0.0 | 0.0 | 0.00 | 1.10 | 0.02 | 93 | 1010.7 |
| 20260905063124 | 70 | 232 | 0.0 | 0.0 | 0.00 | 1.10 | 0.02 | 93 | 1010.8 |
| 20260905063017 | 70 | 232 | 0.0 | 0.0 | 0.00 | 1.10 | 0.02 | 93 | 1010.7 |
| 20260905062657 | 70 | 232 | 0.0 | 0.0 | 0.00 | 1.10 | 0.02 | 93 | 1010.6 |
| 20260905062550 | 70 | 232 | 0.0 | 0.0 | 0.00 | 1.10 | 0.02 | 93 | 1010.6 |
| 20260905062443 | 70 | 232 | 0.0 | 0.0 | 0.00 | 1.10 | 0.02 | 93 | 1010.5 |
| 20260905062115 | 70 | 232 | 0.0 | 0.0 | 0.00 | 1.10 | 0.02 | 93 | 1010.4 |
| 20260905062009 | 70 | 232 | 0.0 | 0.0 | 0.00 | 1.10 | 0.02 | 93 | 1010.3 |
| 20260905061904 | 70 | 232 | 0.0 | 0.0 | 0.00 | 1.10 | 0.02 | 93 | 1010.2 |
| 20260905061800 | 70 | 232 | 0.0 | 0.0 | 0.00 | 1.10 | 0.02 | 93 | 1010.1 |
| 20260905061658 | 70 | 232 | 0.0 | 0.0 | 0.00 | 1.10 | 0.02 | 93 | 1010.1 |
| 20260905061553 | 70 | 232 | 0.0 | 0.0 | 0.00 | 1.10 | 0.02 | 93 | 1010.1 |
| 20260905061451 | 70 | 232 | 0.0 | 0.0 | 0.00 | 1.10 | 0.02 | 93 | 1010.1 |
| 20260905061349 | 70 | 232 | 0.0 | 0.0 | 0.00 | 1.10 | 0.02 | 93 | 1010.2 |
| 20260905061245 | 70 | 232 | 0.0 | 0.0 | 0.00 | 1.10 | 0.02 | 93 | 1010.2 |
| 20260905061140 | 70 | 232 | 0.0 | 0.0 | 0.00 | 1.10 | 0.02 | 93 | 1010.2 |
| 20260905061037 | 70 | 232 | 0.0 | 0.0 | 0.00 | 1.10 | 0.02 | 93 | 1010.2 |
| 20260905060709 | 70 | 232 | 0.0 | 0.0 | 0.00 | 1.10 | 0.02 | 93 | 1010.1 |
| 20260905060606 | 70 | 232 | 0.0 | 0.0 | 0.00 | 1.10 | 0.02 | 93 | 1010.1 |
| 20260905060459 | 70 | 232 | 0.0 | 0.0 | 0.00 | 1.10 | 0.02 | 93 | 1010.1 |
| 20260905060355 | 70 | 232 | 0.0 | 0.0 | 0.00 | 1.10 | 0.02 | 93 | 1010.1 |
| 20260905060034 | 71 | 232 | 0.0 | 0.0 | 0.00 | 1.10 | 0.02 | 93 | 1010.1 |
| 20260905055929 | 71 | 232 | 0.0 | 0.0 | 0.00 | 1.10 | 0.02 | 93 | 1010.2 |
| 20260905055821 | 71 | 232 | 0.0 | 0.0 | 0.00 | 1.10 | 0.02 | 93 | 1010.2 |
| 20260905055718 | 71 | 232 | 0.0 | 0.0 | 0.00 | 1.10 | 0.02 | 93 | 1010.2 |
| 20260905055614 | 71 | 232 | 0.0 | 0.0 | 0.00 | 1.10 | 0.02 | 93 | 1010.3 |
| 20260905055511 | 71 | 232 | 0.0 | 0.0 | 0.00 | 1.11 | 0.02 | 93 | 1010.3 |
| 20260905055406 | 71 | 232 | 0.0 | 0.0 | 0.00 | 1.11 | 0.02 | 93 | 1010.3 |
| 20260905055259 | 71 | 232 | 0.0 | 0.0 | 0.00 | 1.11 | 0.02 | 93 | 1010.4 |
| 20260905055156 | 71 | 232 | 0.0 | 0.0 | 0.00 | 1.11 | 0.02 | 93 | 1010.5 |
| 20260905055054 | 71 | 232 | 0.0 | 0.0 | 0.00 | 1.11 | 0.02 | 93 | 1010.4 |
| 20260905054950 | 71 | 232 | 0.0 | 0.0 | 0.00 | 1.11 | 0.02 | 93 | 1010.5 |
| 20260905054843 | 71 | 232 | 0.0 | 0.0 | 0.00 | 1.11 | 0.02 | 93 | 1010.5 |
| 20260905054738 | 71 | 232 | 0.0 | 0.0 | 0.00 | 1.11 | 0.02 | 93 | 1010.5 |
| 20260905054413 | 71 | 232 | 0.0 | 0.0 | 0.00 | 1.11 | 0.02 | 93 | 1010.7 |
| 20260905054048 | 71 | 232 | 0.0 | 0.0 | 0.00 | 1.11 | 0.02 | 93 | 1010.7 |
| 20260905053945 | 71 | 232 | 0.0 | 0.0 | 0.00 | 1.11 | 0.02 | 93 | 1010.8 |
| 20260905053841 | 71 | 232 | 0.0 | 0.0 | 0.00 | 1.11 | 0.02 | 93 | 1010.7 |
| 20260905053737 | 71 | 232 | 0.0 | 0.0 | 0.00 | 1.11 | 0.02 | 93 | 1010.8 |
| 20260905053632 | 71 | 232 | 0.0 | 0.0 | 0.00 | 1.11 | 0.02 | 93 | 1010.9 |
| 20260905053528 | 71 | 232 | 0.0 | 0.0 | 0.00 | 1.11 | 0.02 | 93 | 1010.8 |
| 20260905053424 | 71 | 232 | 0.0 | 0.0 | 0.00 | 1.11 | 0.02 | 93 | 1010.8 |
| 20260905053059 | 71 | 232 | 0.0 | 0.0 | 0.00 | 1.11 | 0.02 | 93 | 1010.6 |
| 20260905052955 | 71 | 232 | 0.0 | 0.0 | 0.00 | 1.11 | 0.02 | 93 | 1010.6 |
| 20260905052853 | 71 | 232 | 0.0 | 0.0 | 0.00 | 1.11 | 0.02 | 93 | 1010.6 |
| 20260905052750 | 71 | 232 | 0.0 | 0.0 | 0.00 | 1.11 | 0.02 | 93 | 1010.7 |
| 20260905052643 | 71 | 232 | 0.0 | 0.0 | 0.00 | 1.11 | 0.02 | 92 | 1010.7 |
| 20260905052101 | 71 | 232 | 0.0 | 0.0 | 0.00 | 1.11 | 0.02 | 93 | 1010.6 |
| 20260905051739 | 71 | 232 | 0.0 | 0.0 | 0.00 | 1.11 | 0.02 | 93 | 1010.7 |
| 20260905051637 | 72 | 232 | 0.0 | 0.0 | 0.00 | 1.11 | 0.02 | 93 | 1010.7 |
| 20260905051532 | 72 | 232 | 0.0 | 0.0 | 0.00 | 1.11 | 0.02 | 93 | 1010.7 |
| 20260905051426 | 72 | 232 | 0.0 | 0.0 | 0.00 | 1.11 | 0.02 | 93 | 1010.7 |
| 20260905051322 | 72 | 232 | 0.0 | 0.0 | 0.00 | 1.11 | 0.02 | 93 | 1010.8 |
| 20260905051220 | 72 | 232 | 0.0 | 0.0 | 0.00 | 1.11 | 0.02 | 93 | 1010.8 |
| 20260905051115 | 72 | 232 | 0.0 | 0.0 | 0.00 | 1.11 | 0.02 | 93 | 1010.9 |
| 20260905051008 | 72 | 232 | 0.0 | 0.0 | 0.00 | 1.11 | 0.02 | 93 | 1010.9 |
| 20260905050905 | 72 | 282 | 0.0 | 0.0 | 0.00 | 1.11 | 0.02 | 93 | 1010.9 |
| 20260905050800 | 72 | 282 | 0.0 | 0.0 | 0.00 | 1.11 | 0.02 | 93 | 1011.0 |
| 20260905050653 | 72 | 282 | 0.0 | 0.0 | 0.00 | 1.11 | 0.02 | 93 | 1011.1 |
| 20260905050547 | 72 | 282 | 0.0 | 0.0 | 0.00 | 1.11 | 0.02 | 93 | 1011.1 |
| 20260905050224 | 72 | 282 | 0.0 | 0.0 | 0.00 | 1.11 | 0.02 | 93 | 1011.1 |
| 20260905050119 | 72 | 282 | 0.0 | 0.0 | 0.00 | 1.11 | 0.02 | 93 | 1011.2 |
| 20260905050015 | 72 | 282 | 0.0 | 0.0 | 0.00 | 1.11 | 0.02 | 93 | 1011.2 |
| 20260905045913 | 72 | 282 | 0.0 | 0.0 | 0.00 | 1.11 | 0.02 | 93 | 1011.1 |
| 20260905045809 | 72 | 282 | 0.0 | 0.0 | 0.00 | 1.10 | 0.02 | 93 | 1011.1 |
| 20260905045702 | 72 | 282 | 0.0 | 0.0 | 0.00 | 1.10 | 0.01 | 93 | 1011.1 |
| 20260905045600 | 72 | 283 | 0.0 | 0.0 | 0.00 | 1.10 | 0.01 | 93 | 1011.1 |
| 20260905045458 | 72 | 282 | 0.0 | 0.0 | 0.00 | 1.10 | 0.01 | 93 | 1011.1 |
| 20260905045353 | 72 | 282 | 0.0 | 0.0 | 0.00 | 1.10 | 0.01 | 93 | 1011.1 |
| 20260905045250 | 72 | 282 | 0.0 | 0.0 | 0.00 | 1.10 | 0.01 | 93 | 1011.0 |
| 20260905045143 | 72 | 283 | 0.0 | 0.0 | 0.00 | 1.10 | 0.01 | 93 | 1011.1 |
| 20260905045040 | 72 | 283 | 0.0 | 0.0 | 0.00 | 1.10 | 0.01 | 93 | 1011.0 |
| 20260905044936 | 72 | 283 | 0.0 | 0.0 | 0.00 | 1.10 | 0.01 | 93 | 1010.9 |
| 20260905044831 | 72 | 283 | 0.0 | 0.0 | 0.00 | 1.10 | 0.01 | 93 | 1010.9 |
| 20260905044503 | 72 | 283 | 0.0 | 0.0 | 0.00 | 1.10 | 0.01 | 93 | 1010.9 |
| 20260905044354 | 72 | 283 | 0.0 | 0.0 | 0.00 | 1.10 | 0.01 | 93 | 1011.0 |
| 20260905044252 | 72 | 283 | 0.0 | 0.0 | 0.00 | 1.10 | 0.01 | 93 | 1011.0 |
| 20260905044148 | 72 | 283 | 0.0 | 0.0 | 0.00 | 1.10 | 0.01 | 93 | 1011.0 |
| 20260905044046 | 72 | 283 | 0.0 | 0.0 | 0.00 | 1.10 | 0.01 | 93 | 1011.0 |
| 20260905043939 | 72 | 283 | 0.0 | 0.0 | 0.00 | 1.10 | 0.01 | 93 | 1011.0 |
| 20260905043833 | 72 | 283 | 0.0 | 0.0 | 0.00 | 1.10 | 0.01 | 93 | 1011.0 |
| 20260905043730 | 72 | 283 | 0.0 | 0.0 | 0.00 | 1.09 | 0.01 | 93 | 1011.1 |
| 20260905043624 | 72 | 283 | 0.0 | 0.0 | 0.00 | 1.09 | 0.01 | 93 | 1011.1 |
| 20260905043519 | 72 | 283 | 0.0 | 0.0 | 0.00 | 1.09 | 0.00 | 93 | 1011.1 |
| 20260905043415 | 72 | 283 | 0.0 | 0.0 | 0.00 | 1.09 | 0.00 | 93 | 1011.1 |
| 20260905043308 | 72 | 283 | 0.0 | 0.0 | 0.00 | 1.09 | 0.00 | 93 | 1011.1 |
| 20260905043205 | 72 | 283 | 0.0 | 0.0 | 0.00 | 1.09 | 0.00 | 93 | 1011.2 |
| 20260905043101 | 72 | 283 | 0.0 | 0.0 | 0.00 | 1.09 | 0.00 | 93 | 1011.2 |
| 20260905042955 | 72 | 283 | 0.0 | 0.0 | 0.00 | 1.09 | 0.00 | 93 | 1011.2 |
| 20260905042848 | 72 | 283 | 0.0 | 0.0 | 0.00 | 1.09 | 0.00 | 93 | 1011.3 |
| 20260905042741 | 72 | 283 | 0.0 | 0.0 | 0.00 | 1.09 | 0.00 | 93 | 1011.2 |
| 20260905042635 | 72 | 283 | 0.0 | 0.0 | 0.00 | 1.09 | 0.00 | 93 | 1011.2 |
| 20260905042528 | 72 | 283 | 0.0 | 0.0 | 0.00 | 1.09 | 0.00 | 93 | 1011.1 |
| 20260905042202 | 72 | 283 | 0.0 | 0.0 | 0.00 | 1.09 | 0.00 | 93 | 1011.1 |
| 20260905042057 | 72 | 283 | 0.0 | 0.0 | 0.00 | 1.09 | 0.00 | 93 | 1011.2 |
| 20260905041734 | 72 | 283 | 0.0 | 0.0 | 0.00 | 1.09 | 0.00 | 93 | 1011.2 |
| 20260905041632 | 72 | 283 | 0.0 | 0.0 | 0.00 | 1.09 | 0.00 | 93 | 1011.2 |
| 20260905041308 | 72 | 283 | 0.0 | 0.0 | 0.00 | 1.09 | 0.00 | 93 | 1011.2 |
| 20260905041204 | 72 | 283 | 0.0 | 0.0 | 0.00 | 1.09 | 0.00 | 93 | 1011.3 |
| 20260905041058 | 72 | 283 | 0.0 | 0.0 | 0.00 | 1.09 | 0.00 | 93 | 1011.3 |
| 20260905040735 | 72 | 283 | 0.0 | 0.0 | 0.00 | 1.09 | 0.00 | 93 | 1011.1 |
| 20260905040627 | 72 | 283 | 0.0 | 0.0 | 0.00 | 1.09 | 0.00 | 93 | 1011.1 |
| 20260905040305 | 72 | 283 | 0.0 | 0.0 | 0.00 | 1.09 | 0.00 | 93 | 1011.1 |
| 20260905040158 | 72 | 283 | 0.0 | 0.0 | 0.00 | 1.09 | 0.00 | 93 | 1011.1 |
| 20260905035833 | 72 | 283 | 0.0 | 0.0 | 0.00 | 1.09 | 1.09 | 93 | 1011.2 |
| 20260905035726 | 72 | 283 | 0.0 | 0.0 | 0.00 | 1.09 | 1.09 | 93 | 1011.3 |
| 20260905035622 | 72 | 283 | 0.0 | 0.0 | 0.00 | 1.09 | 1.09 | 93 | 1011.4 |
| 20260905035516 | 72 | 283 | 0.0 | 0.0 | 0.00 | 1.09 | 1.09 | 93 | 1011.4 |
| 20260905035410 | 72 | 283 | 0.0 | 0.0 | 0.00 | 1.09 | 1.09 | 93 | 1011.4 |
| 20260905035306 | 72 | 283 | 0.0 | 0.0 | 0.00 | 1.09 | 1.09 | 93 | 1011.3 |
| 20260905035200 | 72 | 283 | 0.0 | 0.0 | 0.00 | 1.09 | 1.09 | 93 | 1011.4 |
| 20260905035057 | 72 | 283 | 0.0 | 0.0 | 0.00 | 1.09 | 1.09 | 93 | 1011.3 |
| 20260905034951 | 72 | 283 | 0.0 | 0.0 | 0.00 | 1.09 | 1.09 | 93 | 1011.3 |
| 20260905034848 | 72 | 283 | 0.0 | 0.0 | 0.00 | 1.09 | 1.09 | 93 | 1011.3 |
| 20260905034742 | 72 | 283 | 0.0 | 0.0 | 0.00 | 1.09 | 1.09 | 93 | 1011.2 |
| 20260905034639 | 72 | 283 | 0.0 | 0.0 | 0.00 | 1.09 | 1.09 | 93 | 1011.2 |
| 20260905034536 | 72 | 283 | 0.0 | 0.0 | 0.00 | 1.09 | 1.09 | 93 | 1011.2 |
| 20260905034430 | 72 | 283 | 0.0 | 0.0 | 0.00 | 1.09 | 1.09 | 93 | 1011.2 |
| 20260905034328 | 72 | 283 | 0.0 | 0.0 | 0.00 | 1.09 | 1.09 | 93 | 1011.2 |
| 20260905034226 | 72 | 283 | 0.0 | 0.0 | 0.00 | 1.09 | 1.09 | 93 | 1011.2 |
| 20260905034122 | 72 | 283 | 0.0 | 0.0 | 0.00 | 1.09 | 1.09 | 93 | 1011.3 |
| 20260905034014 | 72 | 283 | 0.0 | 0.0 | 0.00 | 1.09 | 1.09 | 93 | 1011.3 |
| 20260905033910 | 72 | 283 | 0.0 | 0.0 | 0.00 | 1.09 | 1.09 | 93 | 1011.4 |
| 20260905033803 | 72 | 283 | 0.0 | 0.0 | 0.00 | 1.09 | 1.09 | 93 | 1011.4 |
| 20260905033659 | 72 | 283 | 0.0 | 0.0 | 0.00 | 1.09 | 1.09 | 93 | 1011.5 |
| 20260905033336 | 72 | 283 | 0.0 | 0.0 | 0.00 | 1.09 | 1.09 | 93 | 1011.6 |
| 20260905033230 | 72 | 283 | 0.0 | 0.0 | 0.00 | 1.09 | 1.09 | 93 | 1011.7 |
| 20260905033127 | 72 | 283 | 0.0 | 0.0 | 0.00 | 1.09 | 1.09 | 93 | 1011.7 |
| 20260905033022 | 72 | 283 | 0.0 | 0.0 | 0.00 | 1.09 | 1.09 | 93 | 1011.7 |
| 20260905032916 | 72 | 283 | 0.0 | 0.0 | 0.00 | 1.09 | 1.09 | 93 | 1011.7 |
| 20260905032811 | 72 | 283 | 0.0 | 0.0 | 0.00 | 1.09 | 1.09 | 93 | 1011.7 |
| 20260905032705 | 72 | 283 | 0.0 | 0.0 | 0.00 | 1.09 | 1.09 | 93 | 1011.7 |
| 20260905032602 | 72 | 283 | 0.0 | 0.0 | 0.00 | 1.09 | 1.09 | 93 | 1011.7 |
| 20260905032456 | 72 | 283 | 0.0 | 0.0 | 0.00 | 1.09 | 1.09 | 93 | 1011.7 |
| 20260905032349 | 72 | 283 | 0.0 | 0.0 | 0.00 | 1.09 | 1.09 | 93 | 1011.7 |
| 20260905032245 | 72 | 283 | 0.0 | 0.0 | 0.00 | 1.09 | 1.09 | 93 | 1011.7 |
| 20260905032141 | 72 | 283 | 0.0 | 0.0 | 0.00 | 1.09 | 1.09 | 93 | 1011.8 |
| 20260905032035 | 72 | 283 | 0.0 | 0.0 | 0.00 | 1.09 | 1.09 | 93 | 1011.8 |
| 20260905031928 | 72 | 283 | 0.0 | 0.0 | 0.00 | 1.09 | 1.09 | 93 | 1011.8 |
| 20260905031604 | 72 | 283 | 0.0 | 0.0 | 0.00 | 1.09 | 1.09 | 93 | 1011.7 |
| 20260905031458 | 72 | 283 | 0.0 | 0.0 | 0.00 | 1.09 | 1.09 | 93 | 1011.6 |
| 20260905031356 | 72 | 283 | 0.0 | 0.0 | 0.00 | 1.09 | 1.09 | 93 | 1011.6 |
| 20260905031033 | 72 | 283 | 0.0 | 0.0 | 0.00 | 1.09 | 1.09 | 93 | 1011.7 |
| 20260905030927 | 72 | 283 | 0.0 | 0.0 | 0.00 | 1.09 | 1.09 | 93 | 1011.7 |
| 20260905030825 | 72 | 283 | 0.0 | 0.0 | 0.00 | 1.09 | 1.09 | 93 | 1011.7 |
| 20260905030718 | 72 | 283 | 0.0 | 0.0 | 0.00 | 1.09 | 1.09 | 93 | 1011.7 |
| 20260905030615 | 72 | 283 | 0.0 | 0.0 | 0.00 | 1.09 | 1.09 | 93 | 1011.7 |
| 20260905030513 | 72 | 283 | 0.0 | 0.0 | 0.00 | 1.09 | 1.09 | 93 | 1011.7 |
| 20260905030411 | 72 | 283 | 0.0 | 0.0 | 0.00 | 1.09 | 1.09 | 93 | 1011.8 |
| 20260905030303 | 72 | 283 | 0.0 | 0.0 | 0.00 | 1.09 | 1.09 | 93 | 1011.9 |
| 20260905025933 | 72 | 283 | 0.0 | 0.0 | 0.00 | 1.09 | 1.09 | 93 | 1012.0 |
| 20260905025827 | 72 | 283 | 0.0 | 0.0 | 0.00 | 1.09 | 1.09 | 93 | 1012.0 |
| 20260905025722 | 72 | 283 | 0.0 | 0.0 | 0.00 | 1.09 | 1.09 | 93 | 1012.0 |
| 20260905025400 | 72 | 283 | 0.0 | 0.0 | 0.00 | 1.09 | 1.09 | 93 | 1012.1 |
| 20260905025252 | 72 | 283 | 0.0 | 0.0 | 0.00 | 1.09 | 1.09 | 93 | 1012.0 |
| 20260905024932 | 72 | 283 | 0.0 | 0.0 | 0.00 | 1.09 | 1.09 | 93 | 1012.1 |
| 20260905024825 | 72 | 283 | 0.0 | 0.0 | 0.00 | 1.09 | 1.09 | 93 | 1012.1 |
| 20260905024718 | 72 | 283 | 0.0 | 0.0 | 0.00 | 1.09 | 1.09 | 93 | 1012.1 |
| 20260905024615 | 72 | 283 | 0.0 | 0.0 | 0.00 | 1.09 | 1.09 | 93 | 1012.1 |
| 20260905024250 | 72 | 283 | 0.0 | 0.0 | 0.00 | 1.09 | 1.09 | 93 | 1012.1 |
| 20260905024144 | 72 | 283 | 0.0 | 0.0 | 0.00 | 1.09 | 1.09 | 93 | 1012.1 |
| 20260905024041 | 72 | 283 | 0.0 | 0.0 | 0.00 | 1.09 | 1.09 | 93 | 1012.1 |
| 20260905023715 | 72 | 283 | 0.0 | 0.0 | 0.00 | 1.09 | 1.09 | 93 | 1012.0 |
| 20260905023614 | 72 | 283 | 0.0 | 0.0 | 0.00 | 1.09 | 1.09 | 93 | 1012.0 |
| 20260905023243 | 72 | 283 | 0.0 | 0.0 | 0.00 | 1.09 | 1.09 | 93 | 1011.9 |
| 20260905023138 | 72 | 283 | 0.0 | 0.0 | 0.00 | 1.09 | 1.09 | 93 | 1011.9 |
| 20260905023036 | 72 | 283 | 0.0 | 0.0 | 0.00 | 1.09 | 1.09 | 93 | 1011.9 |
| 20260905022930 | 72 | 283 | 0.0 | 0.0 | 0.00 | 1.09 | 1.09 | 93 | 1011.9 |
| 20260905022824 | 72 | 283 | 0.0 | 0.0 | 0.00 | 1.09 | 1.09 | 93 | 1012.0 |
| 20260905022458 | 72 | 283 | 0.0 | 0.0 | 0.00 | 1.09 | 1.09 | 93 | 1011.9 |
| 20260905022351 | 72 | 283 | 0.0 | 0.0 | 0.00 | 1.09 | 1.09 | 93 | 1011.8 |
| 20260905021803 | 72 | 283 | 0.0 | 0.0 | 0.00 | 1.09 | 1.09 | 93 | 1011.8 |
| 20260905021658 | 72 | 283 | 0.0 | 0.0 | 0.00 | 1.09 | 1.09 | 93 | 1011.7 |
| 20260905021550 | 72 | 283 | 0.0 | 0.0 | 0.00 | 1.09 | 1.09 | 93 | 1011.8 |
| 20260905021448 | 72 | 283 | 0.0 | 0.0 | 0.00 | 1.09 | 1.09 | 93 | 1011.7 |
| 20260905021342 | 72 | 283 | 0.0 | 0.0 | 0.00 | 1.09 | 1.09 | 93 | 1011.8 |
| 20260905020800 | 72 | 283 | 0.0 | 0.0 | 0.00 | 1.09 | 1.09 | 93 | 1011.7 |
| 20260905020657 | 72 | 283 | 0.0 | 0.0 | 0.00 | 1.09 | 1.09 | 93 | 1011.6 |
| 20260905020553 | 72 | 283 | 0.0 | 0.0 | 0.00 | 1.09 | 1.09 | 92 | 1011.6 |
| 20260905020447 | 73 | 283 | 0.0 | 0.0 | 0.00 | 1.09 | 1.09 | 92 | 1011.6 |
| 20260905020127 | 72 | 283 | 0.0 | 0.0 | 0.00 | 1.09 | 1.09 | 92 | 1011.7 |
| 20260905020019 | 72 | 283 | 0.0 | 0.0 | 0.00 | 1.09 | 1.09 | 92 | 1011.6 |
| 20260905015913 | 72 | 283 | 0.0 | 0.0 | 0.00 | 1.09 | 1.09 | 92 | 1011.7 |
| 20260905015808 | 72 | 283 | 0.0 | 0.0 | 0.00 | 1.09 | 1.09 | 92 | 1011.7 |
| 20260905015702 | 72 | 283 | 0.0 | 0.0 | 0.00 | 1.09 | 1.09 | 92 | 1011.7 |
| 20260905015558 | 72 | 283 | 0.0 | 0.0 | 0.00 | 1.09 | 1.09 | 92 | 1011.7 |
| 20260905015454 | 72 | 283 | 0.0 | 0.0 | 0.00 | 1.09 | 1.09 | 92 | 1011.7 |
| 20260905015350 | 72 | 283 | 0.0 | 0.0 | 0.00 | 1.09 | 1.09 | 92 | 1011.6 |
| 20260905015023 | 73 | 283 | 0.0 | 0.0 | 0.00 | 1.09 | 1.09 | 92 | 1011.7 |
| 20260905014920 | 73 | 283 | 0.0 | 0.0 | 0.00 | 1.09 | 1.09 | 92 | 1011.6 |
| 20260905014818 | 73 | 283 | 0.0 | 0.0 | 0.00 | 1.09 | 1.09 | 92 | 1011.6 |
| 20260905014229 | 73 | 283 | 0.0 | 0.0 | 0.00 | 1.09 | 1.09 | 92 | 1011.6 |
| 20260905013903 | 73 | 283 | 0.0 | 0.0 | 0.00 | 1.09 | 1.09 | 92 | 1011.8 |
| 20260905013758 | 73 | 283 | 0.0 | 0.0 | 0.00 | 1.09 | 1.09 | 92 | 1011.8 |
| 20260905013651 | 73 | 283 | 0.0 | 0.0 | 0.00 | 1.09 | 1.09 | 92 | 1011.9 |
| 20260905013327 | 73 | 283 | 0.0 | 0.0 | 0.00 | 1.09 | 1.09 | 92 | 1011.9 |
| 20260905013223 | 73 | 283 | 0.0 | 0.0 | 0.00 | 1.09 | 1.09 | 92 | 1011.9 |
| 20260905013121 | 73 | 283 | 0.0 | 0.0 | 0.00 | 1.09 | 1.09 | 92 | 1011.8 |
| 20260905013015 | 73 | 283 | 0.0 | 0.0 | 0.00 | 1.09 | 1.09 | 92 | 1011.9 |
| 20260905012909 | 73 | 283 | 0.0 | 0.0 | 0.00 | 1.09 | 1.09 | 92 | 1011.9 |
| 20260905012806 | 73 | 283 | 0.0 | 0.0 | 0.00 | 1.09 | 1.09 | 92 | 1011.9 |
| 20260905012659 | 73 | 283 | 0.0 | 0.0 | 0.00 | 1.09 | 1.09 | 92 | 1011.9 |
| 20260905012557 | 73 | 283 | 0.0 | 0.0 | 0.00 | 1.09 | 1.09 | 92 | 1011.9 |
| 20260905012455 | 73 | 283 | 0.0 | 0.0 | 0.00 | 1.09 | 1.09 | 92 | 1011.9 |
| 20260905012348 | 73 | 283 | 0.0 | 0.0 | 0.00 | 1.09 | 1.09 | 92 | 1011.9 |
| 20260905012242 | 73 | 283 | 0.0 | 0.0 | 0.00 | 1.09 | 1.09 | 92 | 1011.9 |
| 20260905012139 | 73 | 283 | 0.0 | 0.0 | 0.00 | 1.09 | 1.09 | 92 | 1011.9 |
| 20260905012032 | 73 | 283 | 0.0 | 0.0 | 0.00 | 1.09 | 1.09 | 92 | 1011.9 |
| 20260905011702 | 73 | 283 | 0.0 | 0.0 | 0.00 | 1.09 | 1.09 | 92 | 1011.9 |
| 20260905011556 | 73 | 283 | 0.0 | 0.0 | 0.00 | 1.09 | 1.09 | 92 | 1011.9 |
| 20260905011233 | 73 | 283 | 0.0 | 0.0 | 0.00 | 1.09 | 1.09 | 92 | 1012.0 |
| 20260905011129 | 73 | 283 | 0.0 | 0.0 | 0.00 | 1.09 | 1.09 | 92 | 1012.0 |
| 20260905011026 | 73 | 283 | 0.0 | 0.0 | 0.00 | 1.09 | 1.09 | 92 | 1011.9 |
| 20260905010922 | 73 | 283 | 0.0 | 0.0 | 0.00 | 1.09 | 1.09 | 92 | 1011.9 |
| 20260905010819 | 73 | 283 | 0.0 | 0.0 | 0.00 | 1.09 | 1.09 | 91 | 1011.9 |
| 20260905010713 | 73 | 283 | 0.0 | 0.0 | 0.00 | 1.09 | 1.09 | 92 | 1012.0 |
| 20260905010609 | 73 | 283 | 0.0 | 0.0 | 0.00 | 1.09 | 1.09 | 91 | 1012.0 |
| 20260905010504 | 73 | 283 | 0.0 | 0.0 | 0.00 | 1.09 | 1.09 | 91 | 1011.9 |
| 20260905010358 | 73 | 283 | 0.0 | 0.0 | 0.00 | 1.09 | 1.09 | 91 | 1011.9 |
| 20260905005810 | 73 | 283 | 0.0 | 0.0 | 0.00 | 1.09 | 1.09 | 91 | 1011.8 |
| 20260905005443 | 73 | 283 | 0.0 | 0.0 | 0.00 | 1.09 | 1.09 | 91 | 1011.7 |
| 20260905004637 | 73 | 283 | 0.0 | 0.0 | 0.00 | 1.09 | 1.09 | 90 | 1011.7 |
| 20260905004530 | 73 | 283 | 0.0 | 0.0 | 0.00 | 1.09 | 1.09 | 90 | 1011.7 |
| 20260905004425 | 73 | 283 | 0.0 | 0.0 | 0.00 | 1.09 | 1.09 | 90 | 1011.6 |
| 20260905004323 | 73 | 283 | 0.0 | 0.0 | 0.00 | 1.09 | 1.09 | 90 | 1011.6 |
| 20260905004219 | 73 | 283 | 0.0 | 0.0 | 0.00 | 1.09 | 1.09 | 90 | 1011.6 |
| 20260905004111 | 73 | 283 | 0.0 | 0.0 | 0.00 | 1.09 | 1.09 | 90 | 1011.6 |
| 20260905004005 | 73 | 283 | 0.0 | 0.0 | 0.00 | 1.09 | 1.09 | 90 | 1011.6 |
| 20260905003640 | 74 | 283 | 0.0 | 0.0 | 0.00 | 1.09 | 1.09 | 90 | 1011.5 |
| 20260905003535 | 74 | 283 | 0.0 | 0.0 | 0.00 | 1.09 | 1.09 | 90 | 1011.6 |
| 20260905003429 | 74 | 283 | 0.0 | 0.0 | 0.00 | 1.09 | 1.09 | 89 | 1011.6 |
| 20260905003324 | 74 | 283 | 0.0 | 0.0 | 0.00 | 1.09 | 1.09 | 89 | 1011.6 |
| 20260905003217 | 74 | 283 | 0.0 | 0.0 | 0.00 | 1.09 | 1.09 | 89 | 1011.6 |
| 20260905003116 | 74 | 283 | 0.0 | 0.0 | 0.00 | 1.09 | 1.09 | 89 | 1011.6 |
| 20260905003008 | 74 | 283 | 0.0 | 0.0 | 0.00 | 1.09 | 1.09 | 89 | 1011.6 |
| 20260905002905 | 74 | 283 | 0.0 | 0.0 | 0.00 | 1.09 | 1.09 | 89 | 1011.6 |
| 20260905002759 | 74 | 283 | 0.0 | 0.0 | 0.00 | 1.09 | 1.09 | 89 | 1011.6 |
| 20260905002652 | 74 | 283 | 0.0 | 0.0 | 0.00 | 1.09 | 1.09 | 89 | 1011.6 |
| 20260905002549 | 74 | 283 | 0.0 | 0.0 | 0.00 | 1.09 | 1.09 | 89 | 1011.6 |
| 20260905002445 | 74 | 283 | 0.0 | 0.0 | 0.00 | 1.09 | 1.09 | 88 | 1011.7 |
| 20260905002340 | 74 | 283 | 0.0 | 0.0 | 0.00 | 1.09 | 1.09 | 89 | 1011.7 |
| 20260905002235 | 74 | 283 | 0.0 | 0.0 | 0.00 | 1.09 | 1.09 | 88 | 1011.7 |
| 20260905002130 | 74 | 283 | 0.0 | 0.0 | 0.00 | 1.09 | 1.09 | 88 | 1011.7 |
| 20260905002025 | 74 | 283 | 0.0 | 0.0 | 0.00 | 1.09 | 1.09 | 88 | 1011.7 |
| 20260905001921 | 74 | 283 | 0.0 | 0.0 | 0.00 | 1.09 | 1.09 | 88 | 1011.7 |
| 20260905001113 | 75 | 283 | 0.0 | 0.0 | 0.00 | 1.09 | 1.09 | 87 | 1011.6 |
| 20260905001006 | 75 | 283 | 0.0 | 0.0 | 0.00 | 1.09 | 1.09 | 87 | 1011.7 |
| 20260905000903 | 75 | 283 | 0.0 | 0.0 | 0.00 | 1.09 | 1.09 | 87 | 1011.6 |
| 20260905000759 | 75 | 283 | 0.0 | 0.0 | 0.00 | 1.09 | 1.09 | 87 | 1011.6 |
| 20260905000432 | 76 | 283 | 0.0 | 0.0 | 0.00 | 1.09 | 1.09 | 87 | 1011.6 |
| 20260905000329 | 76 | 283 | 0.0 | 0.0 | 0.00 | 1.09 | 1.09 | 87 | 1011.6 |
| 20260905000227 | 76 | 283 | 0.0 | 0.0 | 0.00 | 1.09 | 1.09 | 86 | 1011.6 |
| 20260904235902 | 76 | 283 | 0.0 | 0.0 | 0.00 | 1.09 | 1.09 | 86 | 1011.6 |
| 20260904235800 | 76 | 283 | 0.0 | 0.0 | 0.00 | 1.09 | 1.09 | 86 | 1011.6 |
| 20260904235656 | 76 | 283 | 0.0 | 0.0 | 0.00 | 1.09 | 1.09 | 86 | 1011.6 |
| 20260904235549 | 76 | 283 | 0.0 | 0.0 | 0.00 | 1.09 | 1.09 | 86 | 1011.6 |
| 20260904235443 | 76 | 283 | 0.0 | 0.0 | 0.00 | 1.09 | 1.09 | 86 | 1011.5 |
| 20260904235340 | 76 | 283 | 0.0 | 0.0 | 0.00 | 1.09 | 1.09 | 86 | 1011.6 |
| 20260904235233 | 76 | 283 | 0.0 | 0.0 | 0.00 | 1.09 | 1.09 | 86 | 1011.5 |
| 20260904235131 | 77 | 283 | 0.0 | 0.0 | 0.00 | 1.09 | 1.09 | 86 | 1011.5 |
| 20260904235029 | 77 | 283 | 0.0 | 0.0 | 0.00 | 1.09 | 1.09 | 85 | 1011.5 |
| 20260904234927 | 77 | 283 | 0.0 | 0.0 | 0.00 | 1.09 | 1.09 | 85 | 1011.5 |
| 20260904234823 | 77 | 283 | 0.0 | 0.0 | 0.00 | 1.09 | 1.09 | 85 | 1011.5 |
| 20260904234718 | 77 | 283 | 0.0 | 0.0 | 0.00 | 1.09 | 1.09 | 85 | 1011.5 |
| 20260904234614 | 77 | 283 | 0.0 | 0.0 | 0.00 | 1.09 | 1.09 | 85 | 1011.5 |
| 20260904234508 | 77 | 283 | 0.0 | 0.0 | 0.00 | 1.09 | 1.09 | 85 | 1011.5 |
| 20260904234401 | 77 | 283 | 0.0 | 0.0 | 0.00 | 1.09 | 1.09 | 84 | 1011.6 |
| 20260904234258 | 77 | 283 | 0.0 | 0.0 | 0.00 | 1.09 | 1.09 | 84 | 1011.6 |
| 20260904234152 | 78 | 283 | 0.0 | 0.0 | 0.00 | 1.09 | 1.09 | 84 | 1011.6 |
| 20260904234045 | 78 | 283 | 0.0 | 0.0 | 0.00 | 1.09 | 1.09 | 84 | 1011.6 |
| 20260904233502 | 78 | 283 | 0.0 | 0.0 | 0.00 | 1.09 | 1.09 | 83 | 1011.5 |
| 20260904233135 | 78 | 283 | 0.0 | 0.0 | 0.00 | 1.09 | 1.09 | 82 | 1011.5 |
| 20260904233031 | 78 | 283 | 0.0 | 0.0 | 0.00 | 1.09 | 1.09 | 82 | 1011.5 |
| 20260904232926 | 78 | 283 | 0.0 | 0.0 | 0.00 | 1.09 | 1.09 | 81 | 1011.5 |
| 20260904232822 | 78 | 283 | 0.0 | 0.0 | 0.00 | 1.09 | 1.09 | 81 | 1011.5 |
| 20260904232715 | 78 | 283 | 0.0 | 0.0 | 0.00 | 1.09 | 1.09 | 82 | 1011.4 |
| 20260904232609 | 78 | 283 | 0.0 | 0.0 | 0.00 | 1.09 | 1.09 | 81 | 1011.4 |
| 20260904232503 | 78 | 283 | 0.0 | 0.0 | 0.00 | 1.09 | 1.09 | 81 | 1011.4 |
| 20260904232138 | 79 | 283 | 0.0 | 0.0 | 0.00 | 1.09 | 1.09 | 81 | 1011.3 |
| 20260904232030 | 79 | 283 | 0.0 | 0.0 | 0.00 | 1.09 | 1.09 | 81 | 1011.3 |
| 20260904231927 | 79 | 283 | 0.0 | 0.0 | 0.00 | 1.09 | 1.09 | 80 | 1011.3 |
| 20260904231821 | 79 | 283 | 0.0 | 0.0 | 0.00 | 1.09 | 1.09 | 81 | 1011.3 |
| 20260904231715 | 79 | 283 | 0.0 | 0.0 | 0.00 | 1.09 | 1.09 | 80 | 1011.3 |
| 20260904231353 | 79 | 283 | 0.0 | 0.0 | 0.00 | 1.09 | 1.09 | 80 | 1011.3 |
| 20260904231028 | 79 | 283 | 0.0 | 0.0 | 0.00 | 1.09 | 1.09 | 82 | 1011.3 |
| 20260904230924 | 78 | 283 | 0.0 | 0.0 | 0.00 | 1.09 | 1.09 | 82 | 1011.2 |
| 20260904230821 | 78 | 283 | 0.0 | 0.0 | 0.00 | 1.09 | 1.09 | 82 | 1011.3 |
| 20260904230715 | 78 | 283 | 0.0 | 0.0 | 0.00 | 1.09 | 1.09 | 82 | 1011.2 |
| 20260904230612 | 78 | 283 | 0.0 | 0.0 | 0.00 | 1.09 | 1.09 | 81 | 1011.2 |
| 20260904230246 | 78 | 283 | 0.0 | 0.0 | 0.00 | 1.09 | 1.09 | 82 | 1011.2 |
| 20260904230139 | 78 | 283 | 0.0 | 0.0 | 0.00 | 1.09 | 1.09 | 82 | 1011.2 |
| 20260904230035 | 78 | 283 | 0.0 | 0.0 | 0.00 | 1.09 | 1.09 | 83 | 1011.2 |
| 20260904225929 | 78 | 283 | 0.0 | 0.0 | 0.00 | 1.09 | 1.09 | 83 | 1011.2 |
| 20260904225601 | 78 | 283 | 0.0 | 0.0 | 0.00 | 1.09 | 1.09 | 83 | 1011.3 |
| 20260904225456 | 78 | 283 | 0.0 | 0.0 | 0.00 | 1.09 | 1.09 | 82 | 1011.3 |
| 20260904225349 | 78 | 283 | 0.0 | 0.0 | 0.00 | 1.09 | 1.09 | 83 | 1011.3 |
| 20260904225026 | 78 | 298 | 0.0 | 0.0 | 0.00 | 1.09 | 1.09 | 83 | 1011.3 |
| 20260904224444 | 78 | 298 | 0.0 | 0.0 | 0.00 | 1.09 | 1.09 | 84 | 1011.3 |
| 20260904224341 | 77 | 277 | 0.0 | 0.0 | 0.00 | 1.09 | 1.09 | 84 | 1011.3 |
| 20260904224235 | 77 | 277 | 0.0 | 0.0 | 0.00 | 1.09 | 1.09 | 84 | 1011.2 |
| 20260904224130 | 77 | 277 | 0.0 | 0.0 | 0.00 | 1.09 | 1.09 | 84 | 1011.2 |
| 20260904224024 | 77 | 277 | 0.0 | 0.0 | 0.00 | 1.09 | 1.09 | 84 | 1011.3 |
| 20260904223916 | 77 | 277 | 0.0 | 0.0 | 0.00 | 1.09 | 1.09 | 84 | 1011.2 |
| 20260904223814 | 77 | 277 | 0.0 | 0.0 | 0.00 | 1.09 | 1.09 | 84 | 1011.2 |
| 20260904223711 | 77 | 277 | 0.0 | 0.0 | 0.00 | 1.09 | 1.09 | 84 | 1011.2 |
| 20260904223604 | 77 | 277 | 0.0 | 0.0 | 0.00 | 1.09 | 1.09 | 84 | 1011.2 |
| 20260904223457 | 77 | 277 | 0.0 | 0.0 | 0.00 | 1.09 | 1.09 | 84 | 1011.2 |
| 20260904223354 | 77 | 277 | 0.0 | 0.0 | 0.00 | 1.09 | 1.09 | 84 | 1011.2 |
| 20260904223247 | 77 | 277 | 0.0 | 0.0 | 0.00 | 1.09 | 1.09 | 84 | 1011.2 |
| 20260904223138 | 77 | 277 | 0.0 | 0.0 | 0.00 | 1.09 | 1.09 | 84 | 1011.2 |
| 20260904223032 | 77 | 277 | 0.0 | 0.0 | 0.00 | 1.09 | 1.09 | 84 | 1011.2 |
| 20260904222928 | 77 | 277 | 0.0 | 0.0 | 0.00 | 1.09 | 1.09 | 84 | 1011.3 |
| 20260904222824 | 77 | 277 | 0.0 | 0.0 | 0.00 | 1.09 | 1.09 | 84 | 1011.2 |
| 20260904222500 | 77 | 278 | 0.0 | 0.0 | 0.00 | 1.09 | 1.09 | 84 | 1011.3 |
| 20260904222354 | 77 | 278 | 0.0 | 0.0 | 0.00 | 1.09 | 1.09 | 83 | 1011.3 |
| 20260904222028 | 77 | 277 | 0.0 | 0.0 | 0.00 | 1.09 | 1.09 | 83 | 1011.2 |
| 20260904221922 | 77 | 277 | 0.0 | 0.0 | 0.00 | 1.09 | 1.09 | 84 | 1011.2 |
| 20260904221818 | 77 | 277 | 0.0 | 0.0 | 0.00 | 1.09 | 1.09 | 84 | 1011.2 |
| 20260904221713 | 77 | 277 | 0.0 | 0.0 | 0.00 | 1.09 | 1.09 | 84 | 1011.2 |
| 20260904221609 | 77 | 277 | 0.0 | 0.0 | 0.00 | 1.09 | 1.09 | 83 | 1011.1 |
| 20260904221504 | 77 | 277 | 0.0 | 0.0 | 0.00 | 1.09 | 1.09 | 83 | 1011.2 |
| 20260904221143 | 77 | 277 | 0.0 | 0.0 | 0.00 | 1.09 | 1.09 | 83 | 1011.1 |
| 20260904221037 | 77 | 277 | 0.0 | 0.0 | 0.00 | 1.09 | 1.09 | 83 | 1011.1 |
| 20260904220934 | 77 | 278 | 0.0 | 0.0 | 0.00 | 1.09 | 1.09 | 83 | 1011.1 |
| 20260904220829 | 77 | 267 | 0.0 | 0.0 | 0.00 | 1.09 | 1.09 | 83 | 1011.0 |
| 20260904220727 | 77 | 267 | 0.0 | 0.0 | 0.00 | 1.09 | 1.09 | 84 | 1011.0 |
| 20260904220621 | 77 | 268 | 0.0 | 0.0 | 0.00 | 1.09 | 1.09 | 85 | 1011.0 |
| 20260904220515 | 77 | 268 | 0.0 | 0.0 | 0.00 | 1.09 | 1.09 | 85 | 1011.0 |
| 20260904220410 | 77 | 268 | 0.0 | 0.0 | 0.00 | 1.09 | 1.09 | 85 | 1010.9 |
| 20260904220305 | 77 | 268 | 0.0 | 0.0 | 0.00 | 1.09 | 1.09 | 84 | 1010.9 |
| 20260904215941 | 77 | 268 | 0.0 | 4.0 | 0.00 | 1.09 | 1.09 | 84 | 1010.9 |
| 20260904215619 | 77 | 302 | 0.0 | 0.0 | 0.00 | 1.09 | 1.09 | 85 | 1010.8 |
| 20260904215513 | 77 | 302 | 0.0 | 0.0 | 0.00 | 1.09 | 1.09 | 85 | 1010.8 |
| 20260904215410 | 77 | 336 | 0.0 | 0.0 | 0.00 | 1.09 | 1.09 | 85 | 1010.7 |
| 20260904215050 | 77 | 336 | 0.0 | 0.0 | 0.00 | 1.09 | 1.09 | 85 | 1010.7 |
| 20260904214505 | 77 | 317 | 0.0 | 0.0 | 0.00 | 1.09 | 1.09 | 85 | 1010.7 |
| 20260904214139 | 77 | 317 | 0.0 | 0.0 | 0.00 | 1.09 | 1.09 | 84 | 1010.7 |
| 20260904214035 | 77 | 318 | 0.0 | 0.0 | 0.00 | 1.09 | 1.09 | 84 | 1010.7 |
| 20260904213929 | 77 | 318 | 0.0 | 0.0 | 0.00 | 1.09 | 1.09 | 84 | 1010.7 |
| 20260904213825 | 77 | 318 | 0.0 | 0.0 | 0.00 | 1.09 | 1.09 | 84 | 1010.7 |
| 20260904213719 | 77 | 318 | 0.0 | 0.0 | 0.00 | 1.09 | 1.09 | 83 | 1010.7 |
| 20260904213617 | 77 | 318 | 0.0 | 0.0 | 0.00 | 1.09 | 1.09 | 83 | 1010.6 |
| 20260904213251 | 77 | 9 | 0.0 | 0.0 | 0.00 | 1.09 | 1.09 | 83 | 1010.3 |
| 20260904213149 | 77 | 9 | 0.0 | 0.0 | 0.00 | 1.09 | 1.09 | 84 | 1010.3 |
| 20260904213043 | 77 | 9 | 0.0 | 0.0 | 0.00 | 1.09 | 1.09 | 84 | 1010.4 |
| 20260904212935 | 77 | 9 | 0.0 | 0.0 | 0.00 | 1.09 | 1.09 | 83 | 1010.4 |
| 20260904212615 | 77 | 346 | 0.0 | 0.0 | 0.00 | 1.09 | 1.09 | 85 | 1010.6 |
| 20260904212511 | 77 | 310 | 0.0 | 0.0 | 0.00 | 1.09 | 1.09 | 85 | 1010.7 |
| 20260904212407 | 77 | 330 | 0.0 | 0.0 | 0.00 | 1.09 | 1.09 | 85 | 1010.8 |
| 20260904212046 | 77 | 275 | 0.0 | 0.0 | 0.00 | 1.09 | 1.09 | 85 | 1010.7 |
| 20260904211723 | 77 | 270 | 0.0 | 2.0 | 0.00 | 1.09 | 1.09 | 86 | 1010.7 |
| 20260904211616 | 77 | 221 | 0.0 | 0.0 | 0.00 | 1.09 | 1.09 | 86 | 1010.8 |
| 20260904211252 | 76 | 303 | 0.0 | 5.0 | 0.00 | 1.09 | 1.09 | 85 | 1011.1 |
| 20260904210928 | 76 | 261 | 0.0 | 0.0 | 0.00 | 1.09 | 1.09 | 87 | 1011.0 |
| 20260904210821 | 76 | 263 | 0.0 | 0.0 | 0.00 | 1.09 | 1.09 | 87 | 1010.9 |
| 20260904210500 | 76 | 262 | 0.0 | 4.0 | 0.00 | 1.09 | 1.09 | 86 | 1010.9 |
| 20260904210356 | 76 | 272 | 0.0 | 3.0 | 0.00 | 1.09 | 1.09 | 87 | 1010.9 |
| 20260904210249 | 76 | 272 | 0.0 | 3.0 | 0.00 | 1.09 | 1.09 | 87 | 1010.9 |
| 20260904205702 | 76 | 278 | 0.0 | 4.0 | 0.00 | 1.09 | 1.09 | 87 | 1010.6 |
| 20260904205557 | 76 | 278 | 0.0 | 4.0 | 0.00 | 1.09 | 1.09 | 87 | 1010.5 |
| 20260904205236 | 76 | 277 | 0.0 | 2.0 | 0.00 | 1.09 | 1.09 | 87 | 1010.4 |
| 20260904204911 | 76 | 307 | 0.0 | 0.0 | 0.00 | 1.09 | 1.09 | 87 | 1010.3 |
| 20260904204805 | 76 | 0 | 0.0 | 0.0 | 0.00 | 1.09 | 1.09 | 88 | 1010.3 |
| 20260904204658 | 76 | 0 | 0.0 | 0.0 | 0.00 | 1.09 | 1.09 | 87 | 1010.3 |
| 20260904204555 | 76 | 0 | 0.0 | 0.0 | 0.00 | 1.09 | 1.09 | 87 | 1010.2 |
| 20260904204448 | 76 | 0 | 0.0 | 0.0 | 0.00 | 1.09 | 1.09 | 87 | 1010.2 |
| 20260904204341 | 75 | 22 | 0.0 | 6.0 | 0.00 | 1.09 | 1.09 | 86 | 1010.2 |
| 20260904204235 | 75 | 22 | 0.0 | 0.0 | 0.00 | 1.09 | 1.09 | 87 | 1010.1 |
| 20260904204131 | 75 | 22 | 0.0 | 6.0 | 0.00 | 1.09 | 1.09 | 87 | 1010.1 |
| 20260904204026 | 76 | 22 | 0.0 | 6.0 | 0.00 | 1.09 | 1.09 | 87 | 1010.1 |
| 20260904203919 | 76 | 9 | 0.0 | 6.0 | 0.00 | 1.09 | 1.09 | 87 | 1010.1 |
| 20260904203816 | 76 | 34 | 0.0 | 4.0 | 0.00 | 1.09 | 1.09 | 88 | 1010.1 |
| 20260904203709 | 76 | 322 | 0.0 | 0.0 | 0.00 | 1.09 | 1.09 | 88 | 1010.1 |
| 20260904203345 | 75 | 321 | 0.0 | 0.0 | 0.00 | 1.09 | 1.09 | 88 | 1010.1 |
| 20260904203242 | 75 | 321 | 0.0 | 0.0 | 0.00 | 1.09 | 1.09 | 88 | 1010.2 |
| 20260904203136 | 75 | 321 | 0.0 | 0.0 | 0.00 | 1.09 | 1.09 | 88 | 1010.2 |
| 20260904203034 | 75 | 290 | 0.0 | 0.0 | 0.00 | 1.09 | 1.09 | 88 | 1010.2 |
| 20260904202929 | 75 | 275 | 0.0 | 0.0 | 0.00 | 1.09 | 1.09 | 88 | 1010.2 |
| 20260904202826 | 75 | 275 | 0.0 | 0.0 | 0.00 | 1.09 | 1.09 | 89 | 1010.3 |
| 20260904202722 | 75 | 0 | 0.0 | 0.0 | 0.00 | 1.09 | 1.09 | 89 | 1010.3 |
| 20260904202134 | 75 | 300 | 0.0 | 0.0 | 0.00 | 1.09 | 1.09 | 89 | 1010.4 |
| 20260904202029 | 75 | 300 | 0.0 | 0.0 | 0.00 | 1.09 | 1.09 | 90 | 1010.5 |
| 20260904201924 | 75 | 300 | 0.0 | 0.0 | 0.00 | 1.09 | 1.09 | 90 | 1010.5 |
| 20260904201818 | 75 | 351 | 0.0 | 0.0 | 0.00 | 1.09 | 1.09 | 90 | 1010.6 |
| 20260904201458 | 74 | 351 | 0.0 | 0.0 | 0.00 | 1.09 | 1.09 | 90 | 1010.5 |
| 20260904201350 | 74 | 335 | 0.0 | 0.0 | 0.00 | 1.11 | 1.09 | 90 | 1010.4 |
| 20260904201247 | 74 | 271 | 0.0 | 0.0 | 0.00 | 1.13 | 1.09 | 90 | 1010.4 |
| 20260904201143 | 74 | 271 | 0.0 | 0.0 | 0.00 | 1.18 | 1.09 | 90 | 1010.4 |
| 20260904201035 | 74 | 271 | 0.0 | 0.0 | 0.00 | 1.21 | 1.09 | 90 | 1010.4 |
| 20260904200930 | 74 | 271 | 0.0 | 0.0 | 0.00 | 1.30 | 1.09 | 90 | 1010.5 |
| 20260904200609 | 74 | 269 | 0.0 | 0.0 | 0.00 | 1.42 | 1.09 | 91 | 1010.4 |
| 20260904200505 | 74 | 269 | 0.0 | 0.0 | 0.00 | 1.47 | 1.09 | 91 | 1010.6 |
| 20260904200402 | 74 | 269 | 0.0 | 0.0 | 0.00 | 1.51 | 1.09 | 91 | 1010.6 |
| 20260904200259 | 74 | 268 | 0.0 | 0.0 | 0.00 | 1.56 | 1.09 | 91 | 1010.6 |
| 20260904200152 | 74 | 302 | 0.0 | 0.0 | 0.00 | 1.61 | 1.09 | 91 | 1010.6 |
| 20260904200046 | 74 | 302 | 0.0 | 0.0 | 0.00 | 1.66 | 1.09 | 91 | 1010.7 |
| 20260904195942 | 74 | 302 | 0.0 | 0.0 | 0.00 | 1.73 | 1.09 | 91 | 1010.8 |
| 20260904195835 | 73 | 302 | 0.0 | 0.0 | 0.00 | 1.77 | 1.09 | 91 | 1010.8 |
| 20260904195732 | 73 | 302 | 0.0 | 0.0 | 0.00 | 1.79 | 1.09 | 91 | 1010.8 |
| 20260904195627 | 73 | 303 | 0.0 | 0.0 | 0.00 | 1.84 | 1.09 | 92 | 1010.8 |
| 20260904195523 | 73 | 303 | 0.0 | 0.0 | 0.00 | 1.87 | 1.09 | 91 | 1010.8 |
| 20260904195416 | 73 | 304 | 0.0 | 0.0 | 0.00 | 1.95 | 1.09 | 91 | 1010.9 |
| 20260904195311 | 73 | 282 | 0.0 | 0.0 | 0.00 | 2.12 | 1.09 | 92 | 1010.9 |
| 20260904195207 | 73 | 276 | 0.0 | 0.0 | 0.00 | 2.25 | 1.09 | 92 | 1010.9 |
| 20260904195100 | 73 | 270 | 0.0 | 0.0 | 0.00 | 2.25 | 1.09 | 92 | 1010.9 |
| 20260904194956 | 73 | 261 | 0.0 | 0.0 | 0.00 | 2.29 | 1.09 | 92 | 1010.9 |
| 20260904194850 | 73 | 275 | 0.0 | 0.0 | 0.00 | 2.30 | 1.09 | 92 | 1010.8 |
| 20260904194524 | 73 | 264 | 0.0 | 0.0 | 0.00 | 2.31 | 1.09 | 92 | 1010.6 |
| 20260904194419 | 73 | 234 | 0.0 | 0.0 | 0.00 | 2.32 | 1.09 | 93 | 1010.4 |
| 20260904194315 | 73 | 234 | 0.0 | 0.0 | 0.00 | 2.35 | 1.09 | 93 | 1010.4 |
| 20260904194211 | 73 | 234 | 0.0 | 0.0 | 0.00 | 2.36 | 1.09 | 93 | 1010.4 |
| 20260904194108 | 73 | 234 | 0.0 | 0.0 | 0.00 | 2.36 | 1.09 | 93 | 1010.5 |
| 20260904194005 | 73 | 234 | 0.0 | 0.0 | 0.00 | 2.36 | 1.09 | 93 | 1010.5 |
| 20260904193859 | 73 | 234 | 0.0 | 0.0 | 0.00 | 2.37 | 1.09 | 93 | 1010.6 |
| 20260904193757 | 73 | 236 | 0.0 | 0.0 | 0.00 | 2.39 | 1.09 | 93 | 1010.5 |
| 20260904193433 | 73 | 178 | 0.0 | 0.0 | 0.00 | 2.42 | 1.09 | 93 | 1010.5 |
| 20260904193112 | 73 | 178 | 0.0 | 0.0 | 0.00 | 2.44 | 1.09 | 93 | 1010.5 |
| 20260904193005 | 73 | 178 | 0.0 | 0.0 | 0.00 | 2.45 | 1.09 | 93 | 1010.5 |
| 20260904192902 | 73 | 178 | 0.0 | 0.0 | 0.00 | 2.45 | 1.09 | 93 | 1010.6 |
| 20260904192755 | 73 | 178 | 0.0 | 0.0 | 0.00 | 2.46 | 1.09 | 93 | 1010.5 |
| 20260904192652 | 73 | 178 | 0.0 | 0.0 | 0.00 | 2.51 | 1.09 | 93 | 1010.5 |
| 20260904192545 | 72 | 178 | 0.0 | 0.0 | 0.00 | 2.52 | 1.09 | 93 | 1010.4 |
| 20260904192441 | 72 | 178 | 0.0 | 0.0 | 0.00 | 2.54 | 1.09 | 93 | 1010.4 |
| 20260904192335 | 72 | 178 | 0.0 | 0.0 | 0.00 | 2.57 | 1.09 | 93 | 1010.5 |
| 20260904192228 | 72 | 178 | 0.0 | 0.0 | 0.00 | 2.58 | 1.09 | 93 | 1010.6 |
| 20260904192123 | 72 | 177 | 0.0 | 0.0 | 0.00 | 2.58 | 1.09 | 93 | 1010.6 |
| 20260904191537 | 72 | 218 | 0.0 | 0.0 | 0.00 | 2.58 | 1.09 | 93 | 1011.1 |
| 20260904191212 | 72 | 218 | 0.0 | 0.0 | 0.00 | 2.58 | 1.09 | 93 | 1011.2 |
| 20260904191106 | 72 | 265 | 0.0 | 0.0 | 0.00 | 2.58 | 1.09 | 93 | 1011.2 |
| 20260904190959 | 72 | 266 | 0.0 | 0.0 | 0.00 | 2.58 | 1.09 | 93 | 1011.4 |
| 20260904190852 | 72 | 285 | 0.0 | 0.0 | 0.00 | 2.58 | 1.09 | 93 | 1011.4 |
| 20260904190309 | 72 | 286 | 0.0 | 0.0 | 0.00 | 2.58 | 1.09 | 93 | 1011.5 |
| 20260904190203 | 72 | 286 | 0.0 | 0.0 | 0.00 | 2.58 | 1.09 | 93 | 1011.5 |
| 20260904190100 | 72 | 286 | 0.0 | 0.0 | 0.00 | 2.58 | 1.09 | 93 | 1011.5 |
| 20260904185956 | 72 | 286 | 0.0 | 0.0 | 0.00 | 2.58 | 1.09 | 93 | 1011.5 |
| 20260904185854 | 72 | 286 | 0.0 | 0.0 | 0.00 | 2.58 | 1.09 | 93 | 1011.5 |
| 20260904185747 | 71 | 286 | 0.0 | 0.0 | 0.00 | 2.58 | 1.09 | 93 | 1011.5 |
| 20260904185642 | 71 | 286 | 0.0 | 0.0 | 0.00 | 2.58 | 1.09 | 93 | 1011.5 |
| 20260904185539 | 71 | 286 | 0.0 | 0.0 | 0.00 | 2.58 | 1.09 | 93 | 1011.6 |
| 20260904185436 | 71 | 286 | 0.0 | 0.0 | 0.00 | 2.58 | 1.09 | 93 | 1011.6 |
| 20260904185332 | 72 | 286 | 0.0 | 0.0 | 0.00 | 2.58 | 1.09 | 93 | 1011.7 |
| 20260904185228 | 72 | 286 | 0.0 | 0.0 | 0.00 | 2.58 | 1.09 | 93 | 1011.7 |
| 20260904184903 | 72 | 211 | 0.0 | 0.0 | 0.00 | 2.58 | 1.09 | 93 | 1011.7 |
| 20260904184758 | 72 | 211 | 0.0 | 0.0 | 0.00 | 2.58 | 1.09 | 93 | 1011.7 |
| 20260904184652 | 72 | 211 | 0.0 | 0.0 | 0.00 | 2.58 | 1.09 | 93 | 1011.8 |
| 20260904184547 | 72 | 211 | 0.0 | 0.0 | 0.00 | 2.58 | 1.09 | 93 | 1011.8 |
| 20260904184442 | 72 | 211 | 0.0 | 0.0 | 0.00 | 2.58 | 1.09 | 93 | 1011.8 |
| 20260904184336 | 72 | 204 | 0.0 | 0.0 | 0.00 | 2.58 | 1.09 | 93 | 1011.7 |
| 20260904184231 | 72 | 204 | 0.0 | 0.0 | 0.00 | 2.58 | 1.09 | 93 | 1011.6 |
| 20260904184125 | 72 | 204 | 0.0 | 0.0 | 0.00 | 2.58 | 1.09 | 93 | 1011.5 |
| 20260904183541 | 72 | 204 | 0.0 | 0.0 | 0.05 | 2.58 | 1.09 | 92 | 1011.7 |
| 20260904183434 | 72 | 204 | 0.0 | 0.0 | 0.06 | 2.58 | 1.09 | 92 | 1011.7 |
| 20260904182846 | 72 | 204 | 0.0 | 0.0 | 0.06 | 2.58 | 1.09 | 92 | 1011.9 |
| 20260904182519 | 72 | 204 | 0.0 | 0.0 | 0.06 | 2.57 | 1.09 | 92 | 1011.9 |
| 20260904182156 | 72 | 204 | 0.0 | 0.0 | 0.00 | 2.57 | 1.08 | 92 | 1011.9 |
| 20260904182053 | 72 | 204 | 0.0 | 0.0 | 0.00 | 2.57 | 1.08 | 92 | 1011.9 |
| 20260904181946 | 72 | 204 | 0.0 | 0.0 | 0.00 | 2.57 | 1.08 | 92 | 1012.0 |
| 20260904181840 | 72 | 204 | 0.0 | 0.0 | 0.00 | 2.57 | 1.08 | 92 | 1012.2 |
| 20260904181734 | 72 | 204 | 0.0 | 0.0 | 0.00 | 2.56 | 1.08 | 92 | 1012.2 |
| 20260904181629 | 72 | 204 | 0.0 | 0.0 | 0.00 | 2.56 | 1.08 | 92 | 1012.3 |
| 20260904181525 | 72 | 204 | 0.0 | 0.0 | 0.00 | 2.56 | 1.07 | 92 | 1012.2 |
| 20260904181418 | 72 | 204 | 0.0 | 0.0 | 0.00 | 2.56 | 1.07 | 92 | 1012.1 |
| 20260904181316 | 72 | 204 | 0.0 | 0.0 | 0.00 | 2.56 | 1.07 | 92 | 1012.0 |
| 20260904181210 | 72 | 204 | 0.0 | 0.0 | 0.00 | 2.56 | 1.07 | 92 | 1012.0 |
| 20260904181108 | 72 | 204 | 0.0 | 0.0 | 0.00 | 2.56 | 1.07 | 92 | 1011.9 |
| 20260904181002 | 72 | 204 | 0.0 | 0.0 | 0.00 | 2.56 | 1.07 | 92 | 1012.0 |
| 20260904180639 | 72 | 204 | 0.0 | 0.0 | 0.00 | 2.56 | 1.07 | 92 | 1012.2 |
| 20260904180535 | 72 | 204 | 0.0 | 0.0 | 0.00 | 2.56 | 1.07 | 93 | 1012.2 |
| 20260904180430 | 72 | 204 | 0.0 | 0.0 | 0.00 | 2.56 | 1.07 | 92 | 1012.2 |
| 20260904180326 | 72 | 204 | 0.0 | 0.0 | 0.00 | 2.56 | 1.07 | 92 | 1012.1 |
| 20260904180219 | 72 | 204 | 0.0 | 0.0 | 0.00 | 2.56 | 1.07 | 92 | 1011.9 |
| 20260904175858 | 72 | 203 | 0.0 | 0.0 | 0.00 | 2.56 | 1.07 | 93 | 1011.9 |
| 20260904175756 | 72 | 203 | 0.0 | 0.0 | 0.00 | 2.56 | 1.07 | 93 | 1011.8 |
| 20260904175653 | 72 | 203 | 0.0 | 0.0 | 0.00 | 2.56 | 1.07 | 93 | 1011.9 |
| 20260904175547 | 72 | 203 | 0.0 | 0.0 | 0.00 | 2.56 | 1.07 | 93 | 1011.9 |
| 20260904175443 | 72 | 203 | 0.0 | 0.0 | 0.00 | 2.56 | 1.07 | 93 | 1012.0 |
| 20260904175338 | 72 | 203 | 0.0 | 0.0 | 0.00 | 2.56 | 1.07 | 93 | 1012.0 |
| 20260904175236 | 72 | 203 | 0.0 | 0.0 | 0.00 | 2.56 | 1.07 | 93 | 1012.0 |
| 20260904174907 | 72 | 203 | 0.0 | 0.0 | 0.00 | 2.56 | 1.07 | 93 | 1011.9 |
| 20260904174541 | 72 | 205 | 0.0 | 0.0 | 0.00 | 2.56 | 1.07 | 94 | 1012.1 |
| 20260904174219 | 72 | 205 | 0.0 | 0.0 | 0.00 | 2.56 | 1.07 | 94 | 1012.1 |
| 20260904174116 | 72 | 205 | 0.0 | 0.0 | 0.00 | 2.56 | 1.07 | 93 | 1012.0 |
| 20260904174014 | 72 | 205 | 0.0 | 0.0 | 0.00 | 2.56 | 1.07 | 93 | 1012.0 |
| 20260904173912 | 72 | 205 | 0.0 | 0.0 | 0.00 | 2.56 | 1.07 | 94 | 1012.0 |
| 20260904173804 | 72 | 205 | 0.0 | 0.0 | 0.00 | 2.56 | 1.07 | 94 | 1012.1 |
| 20260904173659 | 72 | 205 | 0.0 | 0.0 | 0.00 | 2.56 | 1.07 | 93 | 1012.1 |
| 20260904173553 | 72 | 205 | 0.0 | 0.0 | 0.00 | 2.56 | 1.07 | 93 | 1012.0 |
| 20260904173451 | 72 | 205 | 0.0 | 0.0 | 0.00 | 2.56 | 1.07 | 94 | 1012.1 |
| 20260904173344 | 72 | 205 | 0.0 | 0.0 | 0.00 | 2.56 | 1.07 | 94 | 1012.1 |
| 20260904173241 | 72 | 206 | 0.0 | 0.0 | 0.00 | 2.56 | 1.07 | 94 | 1012.2 |
| 20260904172913 | 72 | 206 | 0.0 | 0.0 | 0.00 | 2.56 | 1.07 | 94 | 1012.2 |
| 20260904172542 | 72 | 206 | 0.0 | 0.0 | 0.00 | 2.56 | 1.07 | 94 | 1012.2 |
| 20260904172216 | 72 | 206 | 0.0 | 0.0 | 0.00 | 2.56 | 1.07 | 94 | 1012.3 |
| 20260904172113 | 72 | 206 | 0.0 | 0.0 | 0.00 | 2.56 | 1.07 | 94 | 1012.3 |
| 20260904172011 | 72 | 206 | 0.0 | 0.0 | 0.00 | 2.56 | 1.07 | 94 | 1012.2 |
| 20260904171906 | 72 | 206 | 0.0 | 0.0 | 0.00 | 2.56 | 1.07 | 94 | 1012.2 |
| 20260904171800 | 72 | 207 | 0.0 | 0.0 | 0.00 | 2.56 | 1.07 | 94 | 1012.2 |
| 20260904171657 | 71 | 207 | 0.0 | 0.0 | 0.00 | 2.56 | 1.07 | 94 | 1012.2 |
| 20260904171551 | 71 | 207 | 0.0 | 0.0 | 0.00 | 2.56 | 1.07 | 94 | 1012.2 |
| 20260904171445 | 71 | 207 | 0.0 | 0.0 | 0.00 | 2.56 | 1.07 | 94 | 1012.2 |
| 20260904171340 | 71 | 209 | 0.0 | 0.0 | 0.00 | 2.56 | 1.07 | 94 | 1012.2 |
| 20260904171232 | 71 | 209 | 0.0 | 0.0 | 0.00 | 2.56 | 1.07 | 94 | 1012.3 |
| 20260904171130 | 71 | 209 | 0.0 | 0.0 | 0.00 | 2.56 | 1.07 | 94 | 1012.3 |
| 20260904171025 | 71 | 125 | 0.0 | 0.0 | 0.00 | 2.56 | 1.07 | 95 | 1012.3 |
| 20260904170919 | 71 | 125 | 0.0 | 0.0 | 0.00 | 2.56 | 1.07 | 94 | 1012.2 |
| 20260904170811 | 71 | 125 | 0.0 | 0.0 | 0.00 | 2.56 | 1.07 | 94 | 1012.1 |
| 20260904170707 | 71 | 125 | 0.0 | 0.0 | 0.00 | 2.56 | 1.07 | 95 | 1012.0 |
| 20260904170559 | 71 | 125 | 0.0 | 0.0 | 0.00 | 2.56 | 1.07 | 95 | 1012.0 |
| 20260904170457 | 71 | 125 | 0.0 | 0.0 | 0.00 | 2.56 | 1.07 | 94 | 1012.0 |
| 20260904165911 | 71 | 124 | 0.0 | 0.0 | 0.00 | 2.56 | 1.07 | 95 | 1012.0 |
| 20260904165804 | 71 | 124 | 0.0 | 0.0 | 0.00 | 2.56 | 1.07 | 95 | 1012.0 |
| 20260904165657 | 71 | 124 | 0.0 | 0.0 | 0.00 | 2.56 | 1.07 | 95 | 1011.9 |
| 20260904165551 | 71 | 124 | 0.0 | 0.0 | 0.00 | 2.56 | 1.07 | 95 | 1011.8 |
| 20260904165224 | 71 | 146 | 0.0 | 0.0 | 0.00 | 2.56 | 1.07 | 95 | 1011.7 |
| 20260904165118 | 71 | 130 | 0.0 | 0.0 | 0.00 | 2.56 | 1.07 | 95 | 1011.8 |
| 20260904165014 | 70 | 130 | 0.0 | 0.0 | 0.00 | 2.56 | 1.07 | 95 | 1011.8 |
| 20260904164650 | 70 | 130 | 0.0 | 0.0 | 0.00 | 2.56 | 1.07 | 94 | 1011.8 |
| 20260904164547 | 70 | 130 | 0.0 | 0.0 | 0.00 | 2.56 | 1.07 | 94 | 1011.7 |
| 20260904164441 | 70 | 130 | 0.0 | 0.0 | 0.00 | 2.56 | 1.07 | 94 | 1011.7 |
| 20260904164334 | 70 | 130 | 0.0 | 0.0 | 0.00 | 2.56 | 1.07 | 94 | 1011.6 |
| 20260904164231 | 70 | 194 | 0.0 | 0.0 | 0.00 | 2.56 | 1.07 | 94 | 1011.6 |
| 20260904163427 | 69 | 130 | 1.0 | 0.0 | 0.00 | 2.56 | 1.07 | 94 | 1010.8 |
| 20260904163324 | 69 | 122 | 2.0 | 0.0 | 0.00 | 2.56 | 1.07 | 94 | 1010.7 |
| 20260904163217 | 69 | 117 | 2.0 | 10.0 | 0.00 | 2.56 | 1.07 | 94 | 1010.7 |
| 20260904163113 | 69 | 173 | 2.0 | 10.0 | 0.00 | 2.55 | 1.07 | 94 | 1010.6 |
| 20260904162748 | 69 | 119 | 1.0 | 10.0 | 0.00 | 2.55 | 1.05 | 94 | 1010.3 |
| 20260904162645 | 69 | 138 | 1.0 | 10.0 | 0.00 | 2.55 | 1.05 | 94 | 1010.4 |
| 20260904162537 | 69 | 127 | 1.0 | 7.0 | 0.00 | 2.55 | 1.05 | 94 | 1010.6 |
| 20260904162429 | 69 | 181 | 0.0 | 7.0 | 0.00 | 2.55 | 1.05 | 94 | 1011.0 |
| 20260904162322 | 69 | 194 | 0.0 | 7.0 | 0.00 | 2.55 | 1.05 | 94 | 1011.2 |
| 20260904162219 | 69 | 171 | 0.0 | 6.0 | 0.00 | 2.55 | 1.05 | 94 | 1011.4 |
| 20260904162117 | 69 | 182 | 0.0 | 6.0 | 0.00 | 2.55 | 1.05 | 94 | 1011.6 |
| 20260904162013 | 69 | 171 | 0.0 | 6.0 | 0.00 | 2.55 | 1.05 | 94 | 1011.6 |
| 20260904161911 | 69 | 165 | 0.0 | 6.0 | 0.00 | 2.55 | 1.05 | 94 | 1011.7 |
| 20260904161807 | 69 | 186 | 0.0 | 6.0 | 0.00 | 2.55 | 1.05 | 94 | 1011.7 |
| 20260904161701 | 69 | 161 | 0.0 | 6.0 | 0.00 | 2.55 | 1.05 | 94 | 1011.8 |
| 20260904161556 | 69 | 193 | 0.0 | 6.0 | 0.04 | 2.55 | 1.05 | 94 | 1012.0 |
| 20260904161453 | 69 | 158 | 0.0 | 6.0 | 0.04 | 2.55 | 1.05 | 94 | 1012.1 |
| 20260904161346 | 69 | 169 | 0.0 | 6.0 | 0.04 | 2.55 | 1.05 | 94 | 1012.1 |
| 20260904161240 | 69 | 123 | 0.0 | 4.0 | 0.05 | 2.55 | 1.05 | 94 | 1012.2 |
| 20260904161137 | 69 | 153 | 0.0 | 0.0 | 0.05 | 2.55 | 1.05 | 94 | 1012.4 |
| 20260904161031 | 69 | 159 | 0.0 | 0.0 | 0.06 | 2.55 | 1.05 | 94 | 1012.5 |
| 20260904160927 | 69 | 149 | 0.0 | 0.0 | 0.06 | 2.55 | 1.05 | 94 | 1012.7 |
| 20260904160820 | 69 | 107 | 0.0 | 0.0 | 0.06 | 2.55 | 1.05 | 94 | 1012.8 |
| 20260904160459 | 69 | 177 | 0.0 | 0.0 | 0.06 | 2.55 | 1.05 | 94 | 1013.0 |
| 20260904160352 | 69 | 176 | 0.0 | 0.0 | 0.06 | 2.55 | 1.05 | 94 | 1012.9 |
| 20260904160250 | 69 | 152 | 0.0 | 0.0 | 0.06 | 2.55 | 1.05 | 94 | 1013.1 |
| 20260904160144 | 69 | 150 | 0.0 | 6.0 | 0.06 | 2.55 | 1.05 | 94 | 1013.1 |
| 20260904160036 | 69 | 197 | 0.0 | 6.0 | 0.06 | 2.54 | 1.05 | 94 | 1013.2 |
| 20260904155931 | 69 | 177 | 0.0 | 1.0 | 0.06 | 2.54 | 1.05 | 94 | 1013.3 |
| 20260904155829 | 69 | 164 | 0.0 | 4.0 | 0.06 | 2.54 | 1.05 | 94 | 1013.3 |
| 20260904155726 | 69 | 190 | 0.0 | 4.0 | 0.08 | 2.54 | 1.05 | 94 | 1013.3 |
| 20260904155402 | 69 | 178 | 0.0 | 2.0 | 0.10 | 2.54 | 1.05 | 94 | 1013.3 |
| 20260904155257 | 69 | 153 | 0.0 | 2.0 | 0.10 | 2.54 | 1.05 | 94 | 1013.5 |
| 20260904155153 | 69 | 173 | 0.0 | 0.0 | 0.10 | 2.54 | 1.05 | 94 | 1013.7 |
| 20260904154828 | 69 | 178 | 0.0 | 4.0 | 0.06 | 2.53 | 1.04 | 94 | 1013.8 |
| 20260904154723 | 69 | 187 | 0.0 | 4.0 | 0.06 | 2.53 | 1.04 | 94 | 1013.9 |
| 20260904154359 | 69 | 185 | 0.0 | 0.0 | 0.06 | 2.52 | 1.03 | 94 | 1014.1 |
| 20260904154253 | 69 | 186 | 0.0 | 0.0 | 0.06 | 2.52 | 1.03 | 94 | 1014.0 |
| 20260904154146 | 69 | 186 | 0.0 | 0.0 | 0.08 | 2.52 | 1.03 | 94 | 1014.0 |
| 20260904154042 | 69 | 188 | 0.0 | 0.0 | 0.09 | 2.52 | 1.03 | 94 | 1014.1 |
| 20260904153939 | 69 | 188 | 0.0 | 0.0 | 0.10 | 2.52 | 1.03 | 94 | 1014.0 |
| 20260904153356 | 69 | 193 | 0.0 | 0.0 | 0.10 | 2.51 | 1.02 | 94 | 1014.0 |
| 20260904153251 | 69 | 193 | 0.0 | 0.0 | 0.10 | 2.50 | 1.02 | 94 | 1014.1 |
| 20260904153147 | 69 | 193 | 0.0 | 0.0 | 0.10 | 2.50 | 1.01 | 94 | 1014.1 |